     2.10           OBSERVATION DATA    G (GPS)             RINEX VERSION / TYPE
teqc 2006Apr13 CORS-ADM Account 20060627 20:04:02UTC        PGM / RUN BY / DATE
Solaris 5.9|UltraSparc IIi|cc -xarch=v9 SC5.5|=+-|*Sparc    COMMENT
teqc 2006Apr13 CORS/NGS/NOAA 20060627 20:04:00UTC           COMMENT
BIT 2 OF LLI FLAGS DATA COLLECTED UNDER A/S CONDITION       COMMENT
cnmr                                                        MARKER NAME
50512M001                                                   MARKER NUMBER
Peter Paul Camacho Commonwealth of the Northern Mariana Isl OBSERVER / AGENCY
0220233361 TRIMBLE 4700 7.29                                REC # / TYPE / VERS
0220238086 TRM33429.20+GP UNAV                              ANT # / TYPE
 -5087756.9960  3465027.2461  1664652.3620                  APPROX POSITION XYZ
        0.0000        0.0000        0.0000                  ANTENNA: DELTA H/E/N
     1     1                                                WAVELENGTH FACT L1/2
     7    C1    L1    L2    P1    P2    D1    D2            # / TYPES OF OBSERV
    30.0000                                                 INTERVAL
SNR is mapped to RINEX snr flag value [0-9]                 COMMENT
L1 & L2: min(max(int(snr_dBHz/6), 0), 9)                    COMMENT
Forced Modulo Decimation to 30 seconds                      COMMENT
  2006     6    27    19     0    0.0000000     GPS         TIME OF FIRST OBS
                                                            END OF HEADER
 06  6 27 19  0  0.0000000  0  9G20G28G23G 4G19G24G17G11G13
  21526275.1984  -22024788.77048 -17148169.66346                  21526269.7864
     -2131.3724
  21111126.9364  -23629027.57748 -18402097.17846                  21111121.9164
      -256.5534
  22057083.1914  -17194623.13848 -13389359.67547                  22057076.0874
      1381.9294
  23856533.1224   -4399160.69346  -3421981.62844                  23856528.8494
      1390.8694
  24422533.7264   -6539584.26646  -6127763.73444                  24422528.8064
     -2073.0474
  22631386.5814   -8262155.37648  -7762107.07846                  22631383.2734
       520.8404
  22289085.5844  -14658129.73348 -11407947.56346                  22289080.6074
      3023.6624
  23124161.5404  -14589389.22247 -11192191.38745                  23124156.2334
      -866.6654
  22522955.2144  -13540709.27847 -10545105.91946                  22522950.1694
      2933.1834
 06  6 27 19  0 30.0000000  0  9G20G28G23G 4G19G24G17G11G13
  21538469.5844  -21960706.55948 -17098235.47846                  21538465.1894
     -2140.6934
  21112643.3974  -23621060.29448 -18395888.91446                  21112637.8934
      -274.4584
  22049233.1444  -17235876.90648 -13421505.48547                  22049225.8824
      1368.4864
  23848599.3394   -4440856.93947  -3454472.20344                  23848595.5164
      1389.2874
  24434396.5494   -6477248.82047  -6079190.67144                  24434390.2924
     -2082.4324
  22628413.4384   -8277777.95448  -7774280.53546                  22628409.9344
       520.8744
  22271835.3254  -14748779.83048 -11478584.00646                  22271829.6894
      3019.8244
  23129109.2024  -14563388.50747 -11171931.12045                  23129103.5974
      -866.5724
  22506225.8214  -13628622.80147 -10613609.98945                  22506221.5084
      2927.9354
 06  6 27 19  1  0.0000000  0  9G20G28G23G 4G19G24G17G11G13
  21550717.4614  -21896344.42248 -17048083.15746                  21550713.3864
     -2149.8934
  21114261.6514  -23612557.24048 -18389263.16246                  21114255.5754
      -292.1484
  22041460.0304  -17276722.91548 -13453333.54647                  22041453.0994
      1354.8494
  23840673.2924   -4482509.08547  -3486928.38644                  23840668.1234
      1387.8914
  24446311.9844   -6414631.73346  -6030398.14344                  24446305.9534
     -2091.7824
  22625440.9004   -8293400.49447  -7786453.94946                  22625437.7884
       520.9184
  22254607.5014  -14839313.26048 -11549129.53946                  22254602.5554
      3016.0254
  23134056.9934  -14537386.86947 -11151670.14745                  23134052.8414
      -866.6464
  22489527.5704  -13716374.59648 -10681988.01446                  22489522.4104
      2922.4714
 06  6 27 19  1 30.0000000  0  9G20G28G23G 4G19G24G17G11G13
  21563016.4864  -21831711.41248 -16997719.76546                  21563012.3214
     -2158.7944
  21115979.9424  -23603526.26148 -18382226.03046                  21115974.3254
      -309.6834
  22033763.9914  -17317165.38048 -13484847.16647                  22033757.0204
      1341.4894
  23832753.7954   -4524124.52147  -3519355.97144                  23832749.5064
      1386.6994
  24458279.3674   -6351740.26746  -5981391.82444                  24458273.2464
     -2100.8554
  22622466.6004   -8309030.57348  -7798633.24246                  22622463.3104
       521.2944
  22237401.0254  -14929734.43648 -11619587.59846                  22237395.5934
      3012.2514
  23139004.0154  -14511390.25447 -11131413.08145                  23138998.9394
      -866.3774
  22472859.0904  -13803968.09148 -10750242.69046                  22472853.6774
      2917.2464
 06  6 27 19  2  0.0000000  0  9G20G28G23G 4G19G24G17G11G13
  21575366.8514  -21766810.53948 -16947147.66946                  21575362.5994
     -2167.6954
  21117798.3644  -23593969.06548 -18374778.87146                  21117792.9134
      -327.1194
  22026145.2234  -17357202.19548 -13516044.69047                  22026138.5854
      1328.0134
  23824841.6734   -4565704.69946  -3551756.07744                  23824836.9354
      1385.6884
  24470299.6024   -6288575.12646  -5932172.21844                  24470293.2834
     -2109.9174
  22619490.4154   -8324669.28248  -7810819.26546                  22619487.4054
       521.6164
  22220216.0184  -15020040.63048 -11689956.07846                  22220210.7204
      3008.4624
  23143949.6924  -14485397.96547 -11111159.38045                  23143944.9834
      -866.2164
  22456221.6774  -13891400.14448 -10818371.58346                  22456216.2814
      2911.8604
 06  6 27 19  2 30.0000000  0  9G20G28G23G 4G19G24G17G11G13
  21587766.7804  -21701647.77348 -16896371.47346                  21587762.0764
     -2176.2214
  21119716.5214  -23583890.55348 -18366925.47746                  21119709.9634
      -344.4874
  22018603.8124  -17396834.30648 -13546926.86147                  22018597.2144
      1314.4094
  23816934.2754   -4607253.78146  -3584131.91744                  23816931.1074
      1384.6734
  24482370.4374   -6225140.38947  -5882742.56844                  24482364.4504
     -2118.8384
  22616512.2694   -8340321.18748  -7823015.54446                  22616509.0394
       522.1194
  22203053.4464  -15110232.66348 -11760235.58746                  22203047.8424
      3004.6044
  23148894.7684  -14459412.37647 -11090910.90345                  23148890.1964
      -865.9724
  22439614.3204  -13978670.64748 -10886374.55145                  22439608.4584
      2906.4114
 06  6 27 19  3  0.0000000  0  9G20G28G23G 4G19G24G17G11G13
  21600217.4154  -21636220.09648 -16845388.83846                  21600211.2924
     -2185.0784
  21121734.0724  -23573286.33348 -18358662.43946                  21121728.8454
      -361.9734
  22011140.1354  -17436054.11548 -13577487.76147                  22011134.1914
      1300.7084
  23809034.2854   -4648767.50646  -3616480.23544                  23809030.8214
      1383.4234
  24494494.1714   -6161431.44046  -5833099.21344                  24494488.4744
     -2127.9934
  22613531.6334   -8355981.76148  -7835218.59646                  22613529.0844
       522.4514
  22185913.1944  -15200302.63448 -11830419.97046                  22185908.7914
      3000.4744
  23153840.0674  -14433427.24447 -11070662.79845                  23153834.5534
      -865.9374
  22423039.6574  -14065770.77948 -10954244.79546                  22423034.2224
      2900.6744
 06  6 27 19  3 30.0000000  0  9G20G28G23G 4G19G24G17G11G13
  21612716.5984  -21570536.94348 -16794207.11846                  21612710.7654
     -2193.7014
  21123850.8544  -23562164.90848 -18349996.40146                  21123845.8674
      -379.3214
  22003754.6144  -17474865.90948 -13607730.72447                  22003748.0714
      1286.9344
  23801139.8814   -4690253.45546  -3648806.94344                  23801135.7854
      1382.4324
  24506669.2484   -6097455.67346  -5783247.99244                  24506662.9754
     -2136.9194
  22610549.0184   -8371658.59548  -7847434.31646                  22610545.2784
       522.8474
  22168796.1424  -15290254.48048 -11900512.31946                  22168790.9794
      2996.4554
  23158783.5484  -14407448.85247 -11050419.93745                  23158778.8754
      -865.8114
  22406497.3454  -14152704.19048 -11021985.13445                  22406491.8084
      2894.9464
 06  6 27 19  4  0.0000000  0  9G20G28G23G 4G19G24G17G11G13
  21625264.5474  -21504595.95548 -16742824.52546                  21625258.1544
     -2202.2904
  21126066.0934  -23550522.32948 -18340924.27046                  21126060.2604
      -396.7724
  21996447.6134  -17513262.34548 -13637650.04047                  21996441.8334
      1272.9744
  23793251.2524   -4731707.30446  -3681108.66244                  23793247.6064
      1381.2794
  24518893.2614   -6033208.57146  -5733185.30544                  24518888.9634
     -2146.0894
  22607563.5314   -8387347.48948  -7859659.45646                  22607559.9934
       523.2284
  22151702.7034  -15380080.17748 -11970506.38446                  22151697.5064
      2992.0804
  23163727.0364  -14381471.02147 -11030177.51045                  23163721.9104
      -866.0304
  22389987.4374  -14239462.20348 -11089588.80446                  22389982.3164
      2888.9844
 06  6 27 19  4 30.0000000  0  9G20G28G23G 4G19G24G17G11G13
  21637862.0164  -21438397.12448 -16691241.00746                  21637857.2044
     -2211.0354
  21128381.0214  -23538357.94348 -18331445.53046                  21128375.2644
      -414.2724
  21989221.4424  -17551238.50848 -13667241.87246                  21989215.0384
      1258.6964
  23785370.2504   -4773128.21747  -3713384.69544                  23785365.6934
      1379.9614
  24531171.3424   -5968688.21846  -5682909.73144                  24531166.0234
     -2155.2834
  22604576.0494   -8403047.24147  -7871893.02546                  22604572.4584
       523.3504
  22134634.8004  -15469775.25048 -12040398.65546                  22134629.4614
      2987.4904
  23168670.9984  -14355490.59547 -11009933.07845                  23168665.6214
      -866.2114
  22373511.8674  -14326039.20648 -11157051.40546                  22373507.5974
      2882.7154
 06  6 27 19  5  0.0000000  0  9G20G28G23G 4G19G24G17G11G13
  21650508.0894  -21371942.39848 -16639458.10247                  21650502.9324
     -2219.3024
  21130794.9864  -23525672.20648 -18321560.55446                  21130789.4714
      -431.4404
  21982075.0214  -17588791.82448 -13696504.20246                  21982068.6064
      1244.7904
  23777493.4354   -4814515.92646  -3745634.81044                  23777490.0174
      1379.0924
  24543501.8694   -5903894.88246  -5632421.45144                  24543495.6874
     -2164.2924
  22601586.3964   -8418758.04547  -7884135.21646                  22601583.0064
       524.0144
  22117591.3854  -15559336.24048 -12110186.44146                  22117585.9064
      2983.1744
  23173615.8404  -14329505.79447 -10989685.18845                  23173611.0694
      -866.1184
  22357072.6164  -14412431.06648 -11224369.74246                  22357067.3544
      2876.6554
 06  6 27 19  5 30.0000000  0  9G20G28G23G 4G19G24G17G11G13
  21663200.2254  -21305243.04648 -16587484.59647                  21663195.4644
     -2227.4664
  21133306.3474  -23512475.69948 -18311277.55546                  21133300.7174
      -448.5114
  21975008.4264  -17625928.57248 -13725441.93746                  21975001.3234
      1230.7814
  23769622.3094   -4855880.27047  -3777866.81644                  23769618.1284
      1378.3204
  24555881.0134   -5838838.01546  -5581727.78744                  24555875.9534
     -2173.0664
  22598592.3524   -8434489.55147  -7896393.54546                  22598589.0374
       524.6394
  22100573.0364  -15648769.04648 -12179874.34346                  22100567.9514
      2978.8234
  23178559.5844  -14303524.35647 -10969439.95845                  23178554.7794
      -866.1384
  22340667.0084  -14498643.30348 -11291548.11845                  22340661.7224
      2870.5664
 06  6 27 19  6  0.0000000  0  9G20G28G23G 4G19G24G17G11G13
  21675939.2954  -21238297.70448 -16535319.40947                  21675935.0474
     -2235.7814
  21135914.9924  -23498765.91148 -18300594.61346                  21135909.2664
      -465.6694
  21968022.6544  -17662642.32848 -13754050.06446                  21968014.7904
      1216.5334
  23761756.5864   -4897218.23947  -3810078.24344                  23761751.9124
      1377.2804
  24568312.2614   -5773514.45446  -5530826.35944                  24568306.5394
     -2182.1444
  22595595.8134   -8450238.43547  -7908665.39746                  22595592.4504
       524.9904
  22083580.1334  -15738067.33648 -12249457.42846                  22083575.3814
      2974.1214
  23183504.5594  -14277541.57147 -10949193.66145                  23183499.6424
      -866.2604
  22324297.2234  -14584668.67748 -11358580.88346                  22324291.6434
      2864.1554
 06  6 27 19  6 30.0000000  0  9G20G28G23G 4G19G24G17G11G13
  21688725.1724  -21171109.14148 -16482964.67847                  21688719.4764
     -2243.6774
  21138621.4654  -23484544.31248 -18289512.85346                  21138615.8274
      -482.6464
  21961116.4084  -17698930.91548 -13782326.89946                  21961109.3794
      1202.4514
  23753893.9364   -4938530.89847  -3842269.91644                  23753891.0364
      1376.7434
  24580794.0744   -5707924.78446  -5479717.56044                  24580787.9934
     -2190.6794
  22592595.0564   -8466005.96147  -7920951.78346                  22592592.0404
       525.8894
  22066613.7704  -15827228.10248 -12318933.33946                  22066608.5784
      2969.7224
  23188449.0974  -14251556.62947 -10928945.68845                  23188443.8674
      -866.2214
  22307962.9514  -14670503.62348 -11425465.27046                  22307957.7254
      2858.0084
 06  6 27 19  7  0.0000000  0  9G20G28G23G 4G19G24G17G11G13
  21701557.3574  -21103676.06048 -16430419.41747                  21701552.3444
     -2251.8024
  21141425.4904  -23469808.72748 -18278030.58646                  21141420.2564
      -499.6634
  21954293.0594  -17734788.37848 -13810267.78046                  21954285.3274
      1188.0814
  23746039.1354   -4979815.27147  -3874439.57044                  23746034.4304
      1375.7674
  24593325.8354   -5642065.86646  -5428398.91644                  24593320.8634
     -2199.7564
  22589591.7804   -8481788.99647  -7933250.25546                  22589588.4044
       526.3824
  22049674.1314  -15916245.06548 -12388297.20846                  22049669.5664
      2964.8634
  23193395.5104  -14225565.00147 -10908692.51245                  23193390.9004
      -866.5334
  22291666.5434  -14756141.25548 -11492195.90946                  22291662.2634
      2851.3184
 06  6 27 19  7 30.0000000  0  9G20G28G23G 4G19G24G17G11G13
  21714433.9884  -21036008.61048 -16377691.52147                  21714428.6174
     -2259.6044
  21144325.8124  -23454568.51948 -18266155.10346                  21144319.9274
      -516.5384
  21947550.6334  -17770220.48548 -13837877.22146                  21947543.0144
      1173.7994
  23738186.3924   -5021080.21747  -3906594.09644                  23738181.9064
      1375.0884
  24605907.0044   -5575946.33346  -5376877.23044                  24605902.0934
     -2208.3014
  22586584.2134   -8497596.40447  -7945567.73046                  22586580.0984
       527.1684
  22032761.2824  -16005122.70148 -12457552.50547                  22032756.8084
      2960.0884
  23198341.7204  -14199573.30947 -10888439.27645                  23198336.8044
      -866.4894
  22275407.1384  -14841585.49748 -11558775.85046                  22275402.1344
      2844.7274
 06  6 27 19  8  0.0000000  0  9G20G28G23G 4G19G24G17G11G13
  21727354.7864  -20968107.13048 -16324781.28947                  21727350.1944
     -2267.2514
  21147322.2414  -23438822.90948 -18253885.79446                  21147315.9484
      -533.2574
  21940889.8064  -17805222.37548 -13865151.42246                  21940881.2914
      1159.4824
  23730337.2264   -5062324.26247  -3938732.27344                  23730333.5934
      1374.4344
  24618540.8204   -5509564.59346  -5325151.18943                  24618534.0684
     -2217.0614
  22583571.0504   -8513426.52248  -7957902.87946                  22583567.4754
       528.0324
  22015875.8804  -16093856.53348 -12526695.74747                  22015871.0824
      2955.2884
  23203287.7524  -14173578.30647 -10868183.47245                  23203282.8994
      -866.6214
  22259185.5604  -14926830.97448 -11625200.90146                  22259180.8484
      2838.1354
 06  6 27 19  8 30.0000000  0  9G20G28G23G 4G19G24G17G11G13
  21740320.7234  -20899971.47648 -16271688.57647                  21740315.7574
     -2274.9954
  21150414.4854  -23422571.20448 -18241222.13146                  21150408.9424
      -550.1614
  21934311.6834  -17839789.53648 -13892086.85746                  21934303.1964
      1144.9804
  23722492.3244   -5103545.69846  -3970852.85044                  23722489.1364
      1373.7604
  24631222.0754   -5442919.12946  -5273219.71944                  24631216.9764
     -2225.7714
  22580554.5864   -8529277.54548  -7970254.32346                  22580550.8464
       528.6574
  21999018.7224  -16182441.07648 -12595722.67047                  21999013.9764
      2950.3374
  23208235.3004  -14147576.50747 -10847922.36945                  23208231.6354
      -866.8074
  22243002.9384  -15011871.85248 -11691466.52746                  22242997.8044
      2831.1824
 06  6 27 19  9  0.0000000  0  9G20G28G23G 4G19G24G17G11G13
  21753329.2994  -20831611.82348 -16218421.32247                  21753324.0184
     -2282.5494
  21153601.5404  -23405821.87848 -18228170.71046                  21153596.2644
      -566.7974
  21927815.8214  -17873927.04648 -13918687.51646                  21927806.6444
      1130.5664
  23714651.4404   -5144752.82447  -4002962.29544                  23714647.5314
      1373.0964
  24643953.0414   -5376017.62346  -5221088.69944                  24643948.1584
     -2234.4434
  22577533.0574   -8545157.93648  -7982628.63746                  22577528.5544
       529.6394
  21982188.9684  -16270881.17448 -12664637.03547                  21982184.1234
      2945.4254
  23213183.7664  -14121574.29547 -10827660.94445                  23213179.3224
      -866.9534
  22226858.4394  -15096711.83048 -11757575.61646                  22226853.1914
      2824.4924
 06  6 27 19  9 30.0000000  0  9G20G28G23G 4G19G24G17G11G13
  21766381.9204  -20763017.73348 -16164971.38446                  21766377.1644
     -2290.1864
  21156885.3414  -23388564.41048 -18214723.33146                  21156880.0734
      -583.5164
  21921404.1924  -17907619.95548 -13944941.72746                  21921395.4884
      1115.8594
  23706815.6924   -5185933.96747  -4035051.48744                  23706811.4174
      1372.3834
  24656735.0484   -5308848.58746  -5168749.24344                  24656730.0164
     -2243.3064
  22574507.8284   -8561055.86148  -7995016.64046                  22574504.0404
       530.3564
  21965389.8724  -16359161.11348 -12733426.60047                  21965385.1424
      2940.1424
  23218134.1514  -14095558.11947 -10807388.64745                  23218129.8284
      -867.3444
  22210754.9114  -15181334.88748 -11823515.67446                  22210750.3564
      2817.3294
 06  6 27 19 10  0.0000000  0  9G20G28G23G 4G19G24G17G11G13
  21779478.4894  -20694195.06248 -16111343.34446                  21779473.6144
     -2297.8814
  21160265.7104  -23370803.44748 -18200883.63346                  21160259.9704
      -600.4004
  21915076.9344  -17940869.34048 -13970850.34446                  21915070.1424
      1100.8454
  23698983.1584   -5227093.05646  -4067123.52344                  23698979.2154
      1371.6464
  24669568.0224   -5241415.82046  -5116204.25544                  24669561.7964
     -2252.1144
  22571478.3454   -8576975.16248  -8007421.27646                  22571474.6004
       530.9724
  21948621.0834  -16447281.56548 -12802091.88847                  21948616.3564
      2934.6444
  23223087.4324  -14069530.17147 -10787107.16045                  23223083.3854
      -867.8084
  22194692.8354  -15265740.90048 -11889286.61346                  22194688.1064
      2809.9324
 06  6 27 19 10 30.0000000  0  9G20G28G23G 4G19G24G17G11G13
  21792619.1194  -20625141.80748 -16057535.61746                  21792614.3474
     -2305.6014
  21163741.9604  -23352536.41948 -18186649.59146                  21163736.4854
      -617.3584
  21908835.7034  -17973668.72948 -13996408.32646                  21908829.2834
      1085.7964
  23691155.2194   -5268226.69046  -4099175.73243                  23691151.9494
      1370.7574
  24682449.9594   -5173715.58546  -5063450.84444                  24682444.8064
     -2261.0744
  22568445.6334   -8592912.43248  -8019839.93646                  22568441.4914
       531.5144
  21931884.1124  -16535235.34148 -12870627.30147                  21931879.2314
      2928.9844
  23228043.6304  -14043485.31547 -10766812.52445                  23228040.1414
      -868.4334
  22178674.0414  -15349921.91248 -11954882.22146                  22178668.8374
      2802.2174
 06  6 27 19 11  0.0000000  0  9G20G28G23G 4G19G24G17G11G13
  21805800.4314  -20555873.89148 -16003560.62546                  21805795.6834
     -2312.6274
  21167311.3194  -23333778.10448 -18172032.72146                  21167306.4004
      -633.5994
  21902677.4434  -18006029.02448 -14021624.15747                  21902673.1374
      1071.1864
  23683330.4404   -5309348.93746  -4131219.05144                  23683326.0514
      1370.3574
  24695381.3944   -5105761.95046  -5010500.00044                  24695375.6804
     -2269.4784
  22565406.5324   -8608881.38548  -8032283.27446                  22565402.9794
       532.6124
  21915176.9814  -16623032.76448 -12939040.88047                  21915172.0714
      2923.7654
  23233001.3804  -14017435.32647 -10746513.86545                  23232996.3134
      -868.5694
  22162696.5024  -15433888.15248 -12020310.46446                  22162690.4914
      2795.0884
 06  6 27 19 11 30.0000000  0  9G20G28G23G 4G19G24G17G11G13
  21819022.5554  -20486389.98748 -15949417.32746                  21819018.2834
     -2319.6634
  21170974.7334  -23314526.61948 -18157031.57146                  21170969.4974
      -649.8784
  21896604.2714  -18037944.40948 -14046493.31247                  21896599.9174
      1056.4114
  23675507.3474   -5350456.80946  -4163251.14644                  23675503.1014
      1370.0644
  24708360.7664   -5037552.31245  -4957349.64844                  24708355.0674
     -2277.6664
  22562362.2794   -8624879.23548  -8044749.12846                  22562358.7184
       533.7504
  21898500.5864  -16710667.42748 -13007327.63547                  21898495.4824
      2918.3994
  23237959.8534  -13991375.86847 -10726207.81845                  23237956.0744
      -868.8434
  22146759.8584  -15517632.31548 -12085565.64846                  22146754.9374
      2787.7154
 06  6 27 19 12  0.0000000  0  9G20G28G23G 4G19G24G17G11G13
  21832284.7144  -20416697.38848 -15895111.44046                  21832279.4034
     -2326.5584
  21174730.9794  -23294788.10448 -18141650.92146                  21174725.4104
      -666.0554
  21890615.0614  -18069417.57048 -14071017.88447                  21890610.8054
      1041.6504
  23667686.1434   -5391555.87946  -4195276.39044                  23667682.4864
      1369.7514
  24721389.0934   -4969092.01646  -4904003.99444                  24721383.4354
     -2286.1964
  22559311.5874   -8640911.38848  -8057241.73046                  22559307.7354
       534.9714
  21881854.7724  -16798141.11148 -13075488.94747                  21881850.0974
      2913.0324
  23242920.1244  -13965310.50747 -10705897.18445                  23242915.6424
      -868.9754
  22130866.0574  -15601155.48748 -12150648.65246                  22130860.8594
      2780.3524
 06  6 27 19 12 30.0000000  0  9G20G28G23G 4G19G24G17G11G13
  21845587.5734  -20346791.40048 -15840639.25946                  21845582.5724
     -2333.5844
  21178580.8814  -23274557.47548 -18125886.79046                  21178574.8694
      -682.3684
  21884711.8264  -18100439.40948 -14095190.76546                  21884705.9614
      1026.7094
  23659868.5164   -5432640.05547  -4227290.02844                  23659864.7734
      1369.3904
  24734465.1464   -4900374.78747  -4850458.12644                  24734460.1324
     -2294.6534
  22556255.7374   -8656971.44148  -8069756.05446                  22556251.5144
       535.9914
  21865241.8574  -16885443.88848 -13143517.08247                  21865236.7604
      2907.4124
  23247882.7414  -13939231.02747 -10685575.55745                  23247878.2244
      -869.3994
  22115016.0784  -15684447.02248 -12215551.14346                  22115011.5284
      2772.6374
 06  6 27 19 13  0.0000000  0  9G20G28G23G 4G19G24G17G11G13
  21858929.7624  -20276676.82848 -15786004.55946                  21858924.5764
     -2340.8594
  21182523.1484  -23253839.04148 -18109742.55946                  21182517.2144
      -698.9894
  21878894.5084  -18131010.37448 -14119012.29746                  21878885.1084
      1011.2844
  23652052.9864   -5473712.41946  -4259294.52244                  23652048.4214
      1368.6724
  24747589.7524   -4831403.84346  -4796714.52444                  24747583.9914
     -2303.5254
  22553193.7004   -8673062.77348  -8082294.77046                  22553189.0764
       536.6654
  21848661.2314  -16972575.41748 -13211411.78847                  21848656.7184
      2901.2604
  23252848.4634  -13913139.02147 -10665244.17045                  23252843.6184
      -870.2644
  22099210.5264  -15767506.35048 -12280272.71146                  22099205.2404
      2764.4924
 06  6 27 19 13 30.0000000  0  8G20G28G23G 4G24G17G11G13
  21872311.3544  -20206354.52648 -15731207.95946                  21872306.7414
     -2347.5834
  21186559.0434  -23232632.74848 -18093218.17646                  21186553.3654
      -715.0734
  21873163.6044  -18161126.37148 -14142479.30346                  21873154.0224
       996.1914
  23644239.7184   -5514772.32947  -4291289.22344                  23644234.5004
      1368.3644
  22550125.7364   -8689184.17748  -8094856.90546                  22550122.5534
       537.8424
  21832114.0254  -17059531.04848 -13279169.42647                  21832109.7064
      2895.4784
  23257816.2284  -13887031.47347 -10644900.65445                  23257811.8254
      -870.5664
  22083450.2154  -15850328.08748 -12344809.15146                  22083444.7294
      2756.6364
 06  6 27 19 14  0.0000000  0  8G20G28G23G 4G24G17G11G13
  21885731.1824  -20135833.89048 -15676256.84746                  21885726.4884
     -2354.0534
  21190685.4584  -23210946.97448 -18076320.17346                  21190679.8324
      -730.8894
  21867518.0854  -18190792.08648 -14165595.43546                  21867512.2104
       981.2704
  23636427.2204   -5555827.13247  -4323280.02644                  23636423.0914
      1368.3694
  22547050.5804   -8705342.90848  -8107448.12246                  22547047.2364
       539.2044
  21815599.7704  -17146314.73248 -13346793.06847                  21815595.1944
      2889.7614
  23262785.8194  -13860914.30247 -10624549.63445                  23262781.8884
      -870.7624
  22067734.3924  -15932915.43948 -12409162.93546                  22067729.2814
      2748.8924
 06  6 27 19 14 30.0000000  0  8G20G28G23G 4G24G17G11G13
  21899190.4754  -20065105.87848 -15621144.14646                  21899185.2654
     -2361.1624
  21194904.9614  -23188772.07848 -18059041.04146                  21194898.9174
      -747.3684
  21861961.4234  -18219994.23248 -14188350.37946                  21861956.5464
       965.5964
  23628617.8104   -5596866.15647  -4355258.51844                  23628613.7244
      1367.6474
  22543971.2044   -8721528.32548  -8120060.14646                  22543967.2334
       539.8934
  21799120.7854  -17232912.34748 -13414271.73347                  21799115.8764
      2883.3164
  23267760.0854  -13834774.91847 -10604181.30745                  23267756.1134
      -871.8514
  22052065.7934  -16015253.69148 -12473322.62546                  22052061.0074
      2740.3324
 06  6 27 19 15  0.0000000  0  8G20G28G23G 4G24G17G11G13
  21912687.4164  -19994178.88248 -15565876.36146                  21912681.6164
     -2367.5984
  21199216.6054  -23166116.48348 -18041387.32946                  21199210.6294
      -763.2574
  21856491.7484  -18248737.07348 -14210747.40146                  21856485.4484
       950.2644
  23620810.1674   -5637896.70347  -4387230.39544                  23620805.3204
      1367.4464
  22540884.4564   -8737747.66448  -8132698.58146                  22540880.4714
       541.1434
  21782676.3564  -17319327.29348 -13481608.04347                  21782671.9574
      2877.3194
  23272737.6164  -13808618.79547 -10583799.94145                  23272733.0014
      -872.2124
  22036444.0124  -16097345.73348 -12537290.46146                  22036438.9744
      2732.1874
 06  6 27 19 15 30.0000000  0  8G20G28G23G 4G24G17G11G13
  21926221.8104  -19923053.32048 -15510453.87446                  21926216.5114
     -2374.4194
  21203619.1464  -23142979.67448 -18023358.64046                  21203613.3284
      -779.5654
  21851110.1004  -18277016.26548 -14232783.14246                  21851103.2024
       934.6294
  23613003.5044   -5678917.10647  -4419194.36344                  23612999.2974
      1366.9294
  22537792.3684   -8753999.16548  -8145362.11146                  22537788.2844
       541.9534
  21766267.9834  -17405554.35548 -13548797.97247                  21766263.0624
      2870.7814
  23277718.3004  -13782442.52647 -10563402.88145                  23277714.0844
      -873.1884
  22020870.6134  -16179186.06848 -12601062.16546                  22020865.5324
      2723.4864
 06  6 27 19 16  0.0000000  0  8G20G28G23G 4G24G17G11G13
  21939795.5234  -19851726.47148 -15454874.52446                  21939790.2174
     -2380.6454
  21208114.2474  -23119358.61448 -18004952.62346                  21208108.5974
      -795.1174
  21845818.5464  -18304824.67748 -14254452.04746                  21845811.7264
       919.3214
  23605200.7694   -5719923.16546  -4451147.10044                  23605197.4024
      1366.9094
  22534694.2964   -8770278.35148  -8158047.19146                  22534690.3584
       543.3544
  21749896.6344  -17491585.43248 -13615835.17947                  21749891.8824
      2864.6734
  23282704.7814  -13756239.97047 -10542985.33545                  23282701.2214
      -873.6524
  22005346.4344  -16260765.95148 -12664630.93046                  22005341.1554
      2715.1464
 06  6 27 19 16 30.0000000  0  8G20G28G23G 4G24G17G11G13
  21953402.8674  -19780218.21448 -15399153.82346                  21953397.7554
     -2386.7684
  21212697.7744  -23095272.18048 -17986183.98246                  21212691.9854
      -810.7714
  21840613.6094  -18332177.91048 -14275766.26046                  21840607.0624
       903.9504
  23597396.6874   -5760933.17347  -4483102.94344                  23597392.5334
      1366.7484
  22531587.4984   -8786603.41148  -8170768.02846                  22531583.7994
       544.7564
  21733560.0094  -17577435.13348 -13682731.05547                  21733555.4624
      2858.4084
  23287693.3264  -13730027.23547 -10522559.86445                  23287688.8874
      -874.1804
  21989869.2244  -16342099.37948 -12728007.62846                  21989863.7124
      2706.7824
 06  6 27 19 17  0.0000000  0  8G20G28G23G 4G24G17G11G13
  21967046.1334  -19708521.90748 -15343286.59346                  21967041.6104
     -2392.9154
  21217371.1474  -23070713.29848 -17967047.19046                  21217365.7974
      -826.3974
  21835497.0764  -18359064.75948 -14296717.05646                  21835490.3074
       888.4914
  23589593.5124   -5801938.61547  -4515055.22444                  23589590.5264
      1366.8514
  22528473.6344   -8802965.84747  -8183517.98446                  22528470.3554
       546.0744
  21717260.5654  -17663091.51648 -13749476.29347                  21717254.9144
      2852.0654
  23292684.6234  -13703794.24347 -10502118.60145                  23292680.0634
      -874.8004
  21974441.6234  -16423173.57948 -12791182.34046                  21974436.7164
      2698.2184
 06  6 27 19 17 30.0000000  0  8G20G28G23G 4G24G17G11G13
  21980725.5214  -19636636.54448 -15287272.05446                  21980720.6504
     -2399.0724
  21222134.5124  -23045680.10948 -17947540.81446                  21222128.7874
      -841.9974
  21830470.5374  -18385479.45548 -14317299.95146                  21830464.0904
       872.9784
  23581791.9344   -5842936.57247  -4547001.70144                  23581787.3094
      1366.6754
  22525354.0054   -8819362.20547  -8196294.37146                  22525350.3124
       547.4804
  21700998.7284  -17748547.81348 -13816065.62147                  21700993.5664
      2845.4644
  23297681.7184  -13677536.29747 -10481657.91245                  23297676.9794
      -875.3914
  21959063.9774  -16503981.58248 -12854149.63246                  21959059.2154
      2689.4534
 06  6 27 19 18  0.0000000  0  8G20G28G23G 4G24G17G11G13
  21994439.7864  -19564569.01748 -15231115.54946                  21994434.0644
     -2405.2394
  21226987.1644  -23020179.79348 -17927670.42446                  21226981.1904
      -857.7444
  21825533.3054  -18411425.14448 -14337517.38546                  21825526.4204
       857.0514
  23573990.9364   -5883932.80947  -4578946.81344                  23573986.5004
      1366.5874
  22522226.2924   -8835798.28348  -8209101.71746                  22522222.8374
       548.6084
  21684774.2854  -17833806.21248 -13882500.73547                  21684769.5564
      2838.6624
  23302683.0174  -13651257.10747 -10461180.64345                  23302678.3424
      -876.2704
  21943737.3584  -16584525.23148 -12916910.93346                  21943732.3484
      2680.3564
 06  6 27 19 18 30.0000000  0  8G20G28G23G 4G24G17G11G13
  22008188.4964  -19492319.58348 -15174817.30746                  22008183.3734
     -2411.5234
  21231928.9534  -22994211.84648 -17907435.67446                  21231922.8024
      -873.5064
  21820686.0164  -18436898.10548 -14357366.45346                  21820679.1254
       841.1234
  23566189.7294   -5924926.00047  -4610889.57544                  23566186.1344
      1366.2404
  22519090.9494   -8852272.59047  -8221938.85146                  22519086.9214
       549.5704
  21668588.6844  -17918861.81148 -13948777.82647                  21668584.1654
      2831.5874
  23307687.9954  -13624953.86847 -10440684.68544                  23307683.2754
      -877.3834
  21928461.4784  -16664798.71048 -12979461.72346                  21928456.7814
      2671.1574
 06  6 27 19 19  0.0000000  0  8G20G28G23G 4G24G17G11G13
  22021971.6894  -19419888.67448 -15118377.66146                  22021966.3944
     -2417.0854
  21236959.5384  -22967776.37848 -17886836.61647                  21236953.6954
      -888.7214
  21815929.3554  -18461893.92948 -14376843.71146                  21815922.8784
       825.5324
  23558390.1874   -5965914.62347  -4642828.77944                  23558386.1344
      1366.5774
  22515949.0764   -8868783.32447  -8234804.37046                  22515945.9014
       551.2994
  21652443.1264  -18003709.04048 -14014892.56247                  21652437.9654
      2825.0444
  23312699.2494  -13598622.66047 -10420166.86845                  23312694.7664
      -877.9254
  21913238.4834  -16744796.13448 -13041797.38546                  21913233.2744
      2662.2264
 06  6 27 19 19 30.0000000  0  8G20G28G23G 4G24G17G11G13
  22035787.9044  -19347281.01548 -15061800.29546                  22035783.0764
     -2423.2964
  21242078.1614  -22940877.66348 -17865876.58446                  21242072.9014
      -904.4734
  21811263.6754  -18486413.17648 -14395949.63946                  21811256.3154
       809.2724
  23550590.8844   -6006901.79847  -4674766.87644                  23550586.2074
      1366.1234
  22512799.7264   -8885333.68547  -8247700.77646                  22512796.6104
       552.2274
  21636336.4494  -18088348.04648 -14080845.03947                  21636332.0254
      2817.6814
  23317713.5494  -13572265.27447 -10399628.71645                  23317709.9454
      -879.1944
  21898068.4964  -16824516.68848 -13103917.31846                  21898063.4854
      2652.5684
 06  6 27 19 20  0.0000000  0  8G20G28G23G 4G24G17G11G13
  22049637.3024  -19274503.21748 -15005090.34946                  22049632.7094
     -2428.8774
  21247283.9784  -22913521.94248 -17844560.44147                  21247278.0574
      -919.6244
  21806687.9514  -18510458.34348 -14414686.14646                  21806680.9854
       793.4284
  23542790.1214   -6047892.59747  -4706707.75944                  23542785.6894
      1366.1874
  22509641.7664   -8901928.12847  -8260631.51046                  22509638.5384
       553.7744
  21620269.7434  -18172779.80348 -14146636.02947                  21620264.0434
      2810.7914
  23322734.6474  -13545884.49947 -10379072.31445                  23322729.9154
      -879.9374
  21882949.9984  -16903961.23048 -13165822.16046                  21882945.0314
      2643.3844
 06  6 27 19 20 30.0000000  0  8G20G28G23G 4G24G17G11G13
  22063518.2304  -19201556.53048 -14948248.78446                  22063513.4464
     -2434.5564
  21252575.9634  -22885709.96348 -17822888.76846                  21252570.6704
      -934.8784
  21802202.9834  -18534026.45048 -14433050.91146                  21802195.9174
       777.3884
  23534988.9834   -6088886.35747  -4738650.94744                  23534984.9504
      1366.2504
  22506476.1024   -8918566.41047  -8273596.42446                  22506472.6524
       555.0934
  21604243.2744  -18257000.36848 -14212262.46247                  21604237.6284
      2803.5644
  23327759.8374  -13519478.15947 -10358495.95545                  23327755.6974
      -880.8354
  21867885.9514  -16983125.38448 -13227508.54446                  21867880.8254
      2633.9164
 06  6 27 19 21  0.0000000  0  8G20G28G23G 4G24G17G11G13
  22077432.2984  -19128441.69648 -14891276.20446                  22077427.4324
     -2439.9414
  21257955.4044  -22857442.27448 -17800861.99346                  21257950.1374
      -949.8054
  21797810.1284  -18557114.04948 -14451041.24246                  21797802.5984
       761.5094
  23527188.0444   -6129882.54247  -4770596.02244                  23527184.0014
      1366.6894
  22503301.7204   -8935247.33547  -8286594.56446                  22503298.0524
       556.7044
  21588258.0024  -18341005.06748 -14277720.68047                  21588252.9584
      2796.5334
  23332790.0764  -13493043.63547 -10337897.66745                  23332785.8814
      -881.5824
  21852876.2374  -17062003.78548 -13288972.25146                  21852870.9944
      2624.5024
 06  6 27 19 21 30.0000000  0  8G20G28G23G 4G24G17G11G13
  22091376.0154  -19055165.42448 -14834177.82846                  22091371.4514
     -2444.9374
  21263419.5024  -22828725.11048 -17778484.99146                  21263414.2494
      -964.4534
  21793506.8954  -18579723.58148 -14468659.08146                  21793500.1034
       746.0064
  23519386.0714   -6170885.99947  -4802546.81044                  23519380.7314
      1367.1004
  22500118.3634   -8951975.77647  -8299629.74146                  22500115.1524
       558.8534
  21572313.1234  -18424795.25048 -14343011.73947                  21572307.9714
      2789.5854
  23337823.9944  -13466583.98447 -10317279.74145                  23337820.5304
      -882.0124
  21837920.2454  -17140597.37347 -13350214.02746                  21837915.4044
      2615.3134
 06  6 27 19 22  0.0000000  0  8G20G28G23G 4G24G17G11G13
  22105350.3154  -18981729.38647 -14776954.96046                  22105345.7564
     -2450.8014
  21268970.0054  -22799559.99748 -17755758.94546                  21268964.2544
      -979.9414
  21789295.8924  -18601852.67747 -14485902.55046                  21789289.8344
       729.2094
  23511581.1694   -6211896.57547  -4834503.13844                  23511576.7474
      1366.8554
  22496925.9614   -8968751.37047  -8312701.65146                  22496922.6274
       559.6004
  21556410.2014  -18508367.17048 -14408132.71847                  21556404.8744
      2781.6944
  23342865.3224  -13440097.58647 -10296641.02044                  23342860.7744
      -883.6524
  21823019.2374  -17218902.07948 -13411230.68046                  21823014.3554
      2604.9904
 06  6 27 19 22 30.0000000  0  8G20G28G23G 4G24G17G11G13
  22119354.4434  -18908137.34047 -14719610.52746                  22119350.3814
     -2455.6544
  21274604.4854  -22769949.97648 -17732686.18646                  21274599.0374
      -994.3854
  21785176.7284  -18623500.69048 -14502771.14146                  21785169.8464
       713.5944
  23503775.6204   -6252916.36247  -4866466.56644                  23503771.2714
      1367.4904
  22493724.8764   -8985575.82247  -8325811.61746                  22493721.1944
       561.6944
  21540548.7444  -18591719.27048 -14473082.42347                  21540543.3864
      2774.6974
  23347910.0674  -13413584.34947 -10275981.39844                  23347905.9024
      -884.1754
  21808173.9574  -17296915.68047 -13472020.50846                  21808168.8124
      2595.5524
 06  6 27 19 23  0.0000000  0  8G20G28G23G 4G24G17G11G13
  22133388.1284  -18834392.15347 -14662146.76446                  22133383.3164
     -2460.7184
  21280323.1804  -22739898.30348 -17709269.30546                  21280317.6624
     -1009.1024
  21781148.7404  -18644666.95548 -14519264.34846                  21781142.2064
       697.5244
  23495968.1694   -6293946.93647  -4898438.45644                  23495963.6804
      1367.9494
  22490513.0674   -9002450.63547  -8338960.82646                  22490509.5614
       563.4284
  21524729.3354  -18674849.28848 -14537859.06947                  21524724.2484
      2767.2314
  23352960.6214  -13387044.26147 -10255300.81444                  23352956.6044
      -885.1224
  21793384.0304  -17374635.73948 -13532581.59246                  21793379.7054
      2585.7424
 06  6 27 19 23 30.0000000  0  8G20G28G23G 4G24G17G11G13
  22147450.8054  -18760490.60247 -14604561.16846                  22147445.3284
     -2465.9134
  21286126.4764  -22709401.23948 -17685505.36447                  21286121.0974
     -1023.9114
  21777214.1394  -18665343.95748 -14535376.31946                  21777206.9954
       681.0944
  23488158.7244   -6334983.02047  -4930414.63644                  23488153.7804
      1368.0474
  22487293.7224   -9019370.41747  -8352145.07546                  22487289.2314
       564.8294
  21508954.1294  -18757748.59948 -14602455.94247                  21508949.2414
      2759.4734
  23358017.4064  -13360470.15347 -10234593.76744                  23358013.2614
      -886.2454
  21778652.5204  -17452053.14848 -13592906.86446                  21778647.0304
      2575.5524
 06  6 27 19 24  0.0000000  0  8G20G28G23G 4G24G17G11G13
  22161542.7024  -18686435.50947 -14546855.94846                  22161538.7864
     -2471.1624
  21292014.0734  -22678461.46048 -17661396.44946                  21292008.5384
     -1038.8094
  21773372.5314  -18685530.34548 -14551105.98246                  21773366.0924
       664.5654
  23480347.8224   -6376026.04147  -4962396.22344                  23480344.4104
      1368.0814
  22484065.5374   -9036336.14347  -8365365.12646                  22484060.7194
       566.1034
  21493223.3204  -18840414.95848 -14666871.30247                  21493218.6134
      2751.4994
  23363080.7394  -13333861.43647 -10213859.70244                  23363077.4094
      -887.7594
  21763978.1694  -17529164.80348 -13652993.88946                  21763973.5934
      2565.1024
 06  6 27 19 24 30.0000000  0  8G20G28G23G 4G24G17G11G13
  22175663.0224  -18612232.33347 -14489035.33746                  22175659.6144
     -2475.9424
  21297984.8794  -22647084.61848 -17636946.96446                  21297978.9784
     -1053.2914
  21769624.6334  -18705228.10548 -14566454.89746                  21769617.5754
       648.3594
  23472536.4774   -6417080.13047  -4994386.44444                  23472532.4974
      1368.5894
  22480826.9514   -9053352.11247  -8378624.32546                  22480822.2064
       567.9494
  21477536.3274  -18922848.87548 -14731105.53047                  21477531.8974
      2743.8144
  23368150.9064  -13307220.39847 -10193100.47844                  23368146.7164
      -888.7454
  21749362.3984  -17605970.92448 -13712842.82646                  21749358.0284
      2554.9764
 06  6 27 19 25  0.0000000  0  8G20G28G23G 4G24G17G11G13
  22189812.1834  -18537881.04447 -14431099.31446                  22189807.6784
     -2480.7524
  21304039.1974  -22615270.11648 -17612156.43246                  21304033.0154
     -1067.6124
  21765969.9034  -18724432.59048 -14581419.44146                  21765962.9094
       632.0364
  23464722.2544   -6458143.17047  -5026383.62344                  23464718.8574
      1369.0044
  22477579.8144   -9070415.80147  -8391920.69946                  22477575.2484
       569.6344
  21461895.4214  -19005044.49548 -14795154.07847                  21461890.6284
      2735.9134
  23373227.4454  -13280543.33447 -10172313.23344                  23373223.3914
      -889.7714
  21734806.1544  -17682465.41348 -13772448.93646                  21734801.4634
      2544.6344
 06  6 27 19 25 30.0000000  0  8G20G28G23G 4G24G17G11G13
  22203988.9224  -18463382.93147 -14373048.88546                  22203983.3804
     -2485.5624
  21310176.4594  -22583018.90748 -17587025.62646                  21310171.0634
     -1082.1484
  21762409.6194  -18743141.18147 -14595997.57746                  21762402.9654
       615.4644
  23456906.2984   -6499214.39847  -5058387.15144                  23456902.3464
      1369.2874
  22474324.1304   -9087526.33747  -8405253.57246                  22474319.1204
       571.2214
  21446300.2594  -19086997.61748 -14859013.66947                  21446295.6844
      2727.7934
  23378310.7044  -13253827.65447 -10151495.86044                  23378306.8314
      -891.0694
  21720309.7624  -17758643.60448 -13831808.58246                  21720304.9014
      2534.0384
 06  6 27 19 26  0.0000000  0  8G20G28G23G 4G24G17G11G13
  22218191.5734  -18388745.56348 -14314889.94746                  22218187.0954
     -2490.3374
  21316395.0814  -22550338.67248 -17561560.51146                  21316389.6244
     -1096.6554
  21758943.4964  -18761358.06748 -14610192.57046                  21758935.9984
       598.8434
  23449087.9844   -6540300.31947  -5090402.19244                  23449084.4464
      1369.5264
  22471058.1384   -9104689.78247  -8418627.69746                  22471053.1034
       572.8424
  21430750.8114  -19168711.07748 -14922686.51147                  21430745.7194
      2719.6044
  23383400.7944  -13227078.04247 -10130652.08044                  23383397.4374
      -892.4024
  21705873.3494  -17834507.74248 -13890923.51246                  21705868.5554
      2523.4084
 06  6 27 19 26 30.0000000  0  8G20G28G23G 4G24G17G11G13
  22232421.6684  -18313967.25547 -14256621.17046                  22232417.0394
     -2494.9274
  21322695.5314  -22517227.72248 -17535759.76546                  21322690.5684
     -1110.8064
  21755571.5624  -18779077.45348 -14623999.91146                  21755564.7794
       582.4274
  23441267.9244   -6581397.44747  -5122425.88644                  23441263.2414
      1370.1764
  22467782.8164   -9121902.29647  -8432040.04746                  22467778.7364
       574.6144
  21415248.2434  -19250177.70848 -14986167.01147                  21415243.8274
      2711.4704
  23388499.4684  -13200289.08947 -10109777.62144                  23388495.0144
      -893.5304
  21691498.2034  -17910050.58848 -13949788.09146                  21691493.0824
      2512.7544
 06  6 27 19 27  0.0000000  0  8G20G28G23G 4G24G17G11G13
  22246676.6614  -18239056.67647 -14198249.34046                  22246671.9004
     -2499.2534
  21329076.9904  -22483694.75248 -17509630.18846                  21329072.0094
     -1124.8104
  21752293.3874  -18796304.33948 -14637423.47346                  21752286.9064
       565.9774
  23433444.0224   -6622513.06047  -5154464.07844                  23433438.8774
      1370.8204
  22464496.8364   -9139170.96148  -8445496.16446                  22464493.3624
       576.5144
  21399791.9304  -19331400.99448 -15049457.89147                  21399787.2384
      2703.2864
  23393604.0434  -13173466.18147 -10088876.68644                  23393599.7094
      -894.7854
  21677183.2384  -17985274.97948 -14008404.52446                  21677178.2284
      2502.0804
 06  6 27 19 27 30.0000000  0  8G20G28G23G 4G24G17G11G13
  22260957.4694  -18164012.48548 -14139773.39446                  22260952.8174
     -2503.5304
  21335538.9214  -22449738.16448 -17483170.51246                  21335533.3574
     -1138.8624
  21749110.1214  -18813033.18347 -14650458.95246                  21749103.4664
       549.3464
  23425617.0004   -6663643.69447  -5186513.94744                  23425612.4334
      1371.3134
  22461200.2394   -9156492.37948  -8458993.38646                  22461197.8584
       578.2864
  21384383.0814  -19412374.01248 -15112553.75847                  21384378.1504
      2694.9424
  23398715.0244  -13146604.47947 -10067945.52744                  23398710.7964
      -895.9524
  21662930.5494  -18060173.91548 -14066767.34046                  21662925.7294
      2491.2844
 06  6 27 19 28  0.0000000  0  8G20G28G23G 4G24G17G11G13
  22275262.5654  -18088836.42447 -14081194.68746                  22275257.6304
     -2507.9444
  21342080.6424  -22415359.79748 -17456382.17046                  21342075.0024
     -1152.8474
  21746021.8294  -18829262.36747 -14663105.08146                  21746015.1244
       532.7204
  23417787.3844   -6704789.62247  -5218575.70544                  23417782.4474
      1371.8554
  22457894.1584   -9173866.54747  -8472531.73046                  22457892.9034
       579.9954
  21369022.9294  -19493093.72848 -15175452.24447                  21369018.1134
      2686.4264
  23403834.8484  -13119702.09947 -10046982.62244                  23403830.7474
      -897.3974
  21648740.4914  -18134743.58448 -14124873.58546                  21648735.7404
      2480.1274
 06  6 27 19 28 30.0000000  0  8G20G28G23G 4G24G17G11G13
  22289593.0744  -18013531.33247 -14022515.43446                  22289588.1954
     -2512.2804
  21348702.4304  -22380562.33548 -17429267.26846                  21348696.9194
     -1166.8854
  21743028.9934  -18844990.63647 -14675360.89046                  21743021.6384
       515.9574
  23409953.7844   -6745952.26347  -5250650.48644                  23409949.6444
      1372.3684
  22454577.7694   -9191294.29948  -8486111.81746                  22454576.8284
       581.8554
  21353710.7654  -19573557.42948 -15238151.24447                  21353706.1694
      2677.8964
  23408961.8454  -13092758.59647 -10025987.71144                  23408957.4944
      -898.7944
  21634613.6534  -18208980.96148 -14182720.91646                  21634608.8994
      2469.0284
 06  6 27 19 29  0.0000000  0  8G20G28G23G 4G24G17G11G13
  22303946.6014  -17938101.16647 -13963738.71146                  22303941.4504
     -2516.3974
  21355402.9864  -22345349.76748 -17401828.89946                  21355397.3864
     -1180.5914
  21740130.7274  -18860218.20047 -14687226.54846                  21740123.6364
       499.2434
  23402117.1884   -6787133.40947  -5282739.67644                  23402113.4124
      1373.0324
  22451251.0494   -9208777.30348  -8499734.95546                  22451248.3494
       583.7704
  21338448.2784  -19653763.56548 -15300649.54847                  21338443.5714
      2669.2724
  23414097.0714  -13065774.15147 -10004960.89644                  23414092.9064
      -900.1714
  21620550.5394  -18282884.39748 -14240308.03046                  21620545.5684
      2457.8664
 06  6 27 19 29 30.0000000  0  8G20G28G23G 4G24G17G11G13
  22318324.0564  -17862546.35748 -13904864.85446                  22318319.1614
     -2520.6054
  21362182.5484  -22309722.85048 -17374067.69046                  21362177.1924
     -1194.5614
  21737329.1704  -18874941.91347 -14698699.57646                  21737322.7594
       482.1974
  23394277.1694   -6828332.22447  -5314842.66744                  23394272.8684
      1373.4574
  22447913.2344   -9226314.48847  -8513400.28746                  22447908.2664
       585.3864
  21323235.1014  -19733708.22248 -15362944.09147                  21323230.6074
      2660.3084
  23419240.7264  -13038746.28947  -9983900.26744                  23419235.5104
      -901.8024
  21606551.0664  -18356449.15647 -14297631.23946                  21606546.5024
      2446.3774
 06  6 27 19 30  0.0000000  0  8G20G28G23G 4G24G17G11G13
  22332725.5214  -17786869.60947 -13845895.99146                  22332720.5384
     -2524.4584
  21369040.6334  -22273684.58048 -17345985.92846                  21369035.1714
     -1207.9444
  21734623.4744  -18889160.62748 -14709779.10346                  21734616.7214
       465.6884
  23386434.4614   -6869549.73747  -5346960.20444                  23386429.9134
      1374.3124
  22444565.7514   -9243906.93047  -8527108.69446                  22444560.3154
       587.4514
  21308072.7524  -19813388.06348 -15425032.29247                  21308068.3344
      2651.7144
  23424392.2164  -13011674.06647  -9962805.04244                  23424387.6424
      -902.9494
  21592617.5804  -18429672.19847 -14354688.16746                  21592612.9384
      2435.1514
 06  6 27 19 30 30.0000000  0  8G20G28G23G 4G24G17G11G13
  22347148.5874  -17711073.65047 -13786834.21946                  22347143.6934
     -2528.6624
  21375976.2044  -22237236.94948 -17317585.17546                  21375970.5094
     -1221.8854
  21732014.3154  -18902873.64547 -14720464.58746                  21732007.2714
       448.4424
  23378587.4274   -6910786.96647  -5379093.12444                  23378583.0864
      1374.7854
  22441207.3244   -9261554.98347  -8540860.41646                  22441203.1864
       589.0334
  21292960.8764  -19892800.81848 -15486912.37347                  21292956.3104
      2642.4464
  23429552.5024  -12984557.03547  -9941674.93144                  23429547.6954
      -904.8004
  21578748.9254  -18502550.65447 -14411476.58846                  21578744.1914
      2423.3694
 06  6 27 19 31  0.0000000  0  8G20G28G23G 4G24G17G11G13
  22361595.0314  -17635159.59247 -13727680.43546                  22361589.8624
     -2532.4124
  21382989.6194  -22200381.64848 -17288866.76346                  21382983.5944
     -1235.2884
  21729501.3494  -18916078.44647 -14730754.06046                  21729494.4044
       431.6214
  23370736.0934   -6952043.30946  -5411240.93444                  23370731.9134
      1375.4934
  22437838.3474   -9279257.67247  -8554654.72646                  22437835.1864
       591.0304
  21277900.6014  -19971942.23948 -15548581.02747                  21277895.9774
      2633.4524
  23434721.3214  -12957392.45447  -9920507.76344                  23434717.8434
      -906.2354
  21564947.4564  -18575079.77748 -14467992.82746                  21564942.2874
      2411.7974
 06  6 27 19 31 30.0000000  0  8G20G28G23G 4G24G17G11G13
  22376062.5304  -17559130.27747 -13668436.83646                  22376058.0344
     -2535.9084
  21390079.8154  -22163121.66548 -17259833.02146                  21390074.3704
     -1248.4774
  21727085.3904  -18928774.28648 -14740646.93746                  21727078.1054
       414.9514
  23362881.1824   -6993319.99046  -5443404.59045                  23362877.4824
      1376.5584
  22434459.6294   -9297016.09247  -8568492.45946                  22434455.4474
       593.1744
  21262892.5894  -20050810.36448 -15610036.72147                  21262887.8624
      2624.6294
  23439899.8664  -12930179.81147  -9899303.14244                  23439895.6774
      -907.6514
  21551212.6014  -18647257.16448 -14524234.95546                  21551208.1894
      2400.2984
 06  6 27 19 32  0.0000000  0  8G20G28G23G 4G24G17G11G13
  22390552.6144  -17482988.21747 -13609105.40246                  22390546.9754
     -2540.0634
  21397246.7964  -22125459.43548 -17230485.84346                  21397241.4724
     -1262.2224
  21724766.5864  -18940960.19647 -14750142.47046                  21724759.5804
       397.5494
  23355022.5574   -7034617.92746  -5475584.81844                  23355018.9964
      1376.8754
  22431069.5684   -9314831.09248  -8582374.29146                  22431065.6364
       594.5954
  21247937.2234  -20129402.55848 -15671277.40347                  21247932.0534
      2614.9124
  23445087.8074  -12902918.31747  -9878060.45444                  23445083.4734
      -909.7124
  21537544.9374  -18719080.02148 -14580200.83346                  21537540.0504
      2387.9744
 06  6 27 19 32 30.0000000  0  8G20G28G23G 4G24G17G11G13
  22405060.6644  -17406744.34847 -13549694.64646                  22405056.0844
     -2543.2234
  21404488.0554  -22087406.23048 -17200834.01546                  21404482.6734
     -1274.9904
  21722543.2404  -18952643.43848 -14759246.31646                  21722536.4484
       380.9814
  23347158.5374   -7075946.52347  -5507788.90045                  23347154.3464
      1378.0864
  22427667.1604   -9332711.55347  -8596307.12946                  22427663.3724
       597.1044
  21233032.8394  -20207724.21448 -15732307.27647                  21233028.5714
      2606.1084
  23450282.9534  -12875615.77247  -9856785.79544                  23450278.4254
      -910.8454
  21523943.9274  -18790553.48748 -14635894.47746                  21523939.4234
      2376.5634
 06  6 27 19 33  0.0000000  0  8G20G28G23G 4G24G17G11G13
  22419590.2634  -17330391.80448 -13490199.21146                  22419585.2184
     -2547.0174
  21411805.1024  -22048955.30648 -17170872.26446                  21411799.5154
     -1288.4034
  21720418.0044  -18963813.56448 -14767950.32346                  21720410.6384
       363.6774
  23339289.3724   -7117297.09247  -5540010.10045                  23339285.6534
      1378.6134
  22424253.2764   -9350648.60748  -8610284.06846                  22424250.0714
       598.7354
  21218182.8054  -20285763.36448 -15793117.01647                  21218178.0954
      2596.4894
  23455489.3154  -12848261.54347  -9835470.84344                  23455484.2584
      -912.7784
  21510411.4584  -18861665.31548 -14691306.31146                  21510406.7674
      2364.1854
 06  6 27 19 33 30.0000000  0  8G20G28G23G 4G24G17G11G13
  22434139.3014  -17253936.38247 -13430623.60745                  22434134.6744
     -2550.1814
  21419196.4034  -22010113.06548 -17140605.59546                  21419190.9674
     -1301.1824
  21718389.2144  -18974473.22048 -14776256.56446                  21718382.5244
       346.8604
  23331415.2924   -7158673.87646  -5572251.74444                  23331412.0944
      1379.7174
  22420828.6244   -9368646.12448  -8624308.11746                  22420824.8604
       600.9624
  21203385.5964  -20363520.73348 -15853707.20247                  21203381.4324
      2587.2274
  23460703.5284  -12820858.28447  -9814117.72144                  23460698.7324
      -914.1994
  21496948.8614  -18932415.72448 -14746436.53446                  21496943.5654
      2352.3294
 06  6 27 19 34  0.0000000  0  8G20G28G23G 4G24G17G11G13
  22448707.0234  -17177381.66847 -13370970.63246                  22448702.3584
     -2553.5554
  21426661.7264  -21970883.22748 -17110036.89746                  21426656.5484
     -1314.1214
  21716457.4904  -18984622.53447 -14784165.13346                  21716451.4374
       329.7664
  23323536.5004   -7200078.82947  -5604515.34444                  23323531.7064
      1380.6014
  22417391.9254   -9386706.11447  -8638380.85946                  22417388.6954
       602.9644
  21188643.0534  -20440994.87048 -15914076.67047                  21188638.0484
      2577.6814
  23465927.8504  -12793406.39747  -9792726.67145                  23465922.6024
      -915.8844
  21483554.5214  -19002803.26848 -14801283.98446                  21483549.8274
      2340.1174
 06  6 27 19 34 30.0000000  0  8G20G28G23G 4G24G17G11G13
  22463293.3694  -17100730.79847 -13311242.72446                  22463289.2034
     -2556.6804
  21434200.3284  -21931268.46648 -17079168.25446                  21434194.8774
     -1326.9434
  21714623.6974  -18994260.92847 -14791675.59046                  21714616.4624
       312.7344
  23315652.0124   -7241513.34947  -5636801.97545                  23315648.1474
      1381.5874
  22413943.4334   -9404828.98447  -8652502.59346                  22413939.8914
       605.1224
  21173954.5684  -20518183.41948 -15974223.61647                  21173949.9864
      2568.1844
  23471160.1194  -12765905.10347  -9771297.12144                  23471156.2044
      -917.5634
  21470229.5034  -19072825.15248 -14855846.50646                  21470224.6624
      2327.8714
 06  6 27 19 35  0.0000000  0  8G20G28G23G 4G24G17G11G13
  22477897.7734  -17023983.07047 -13251439.35546                  22477893.5134
     -2560.0104
  21441811.8304  -21891268.99948 -17047999.86446                  21441806.7314
     -1339.7904
  21712887.7424  -19003384.37247 -14798784.78346                  21712880.7594
       295.4594
  23307762.0764   -7282975.03647  -5669109.80845                  23307757.7924
      1382.3194
  22410483.3954   -9423012.65048  -8666671.70246                  22410479.8264
       606.9534
  21159321.5104  -20595080.79348 -16034143.68247                  21159316.4994
      2558.1934
  23476404.0834  -12738350.51547  -9749826.06744                  23476399.8894
      -919.5414
  21456975.5164  -19142475.50548 -14910119.52946                  21456970.9064
      2315.2644
 06  6 27 19 35 30.0000000  0  8G20G28G23G 4G24G17G11G13
  22492521.0864  -16947138.88047 -13191560.81246                  22492516.4534
     -2562.8084
  21449496.4134  -21850885.36248 -17016532.11346                  21449491.0244
     -1352.2664
  21711249.5004  -19011990.23847 -14805490.66946                  21711243.3724
       278.4864
  23299867.6114   -7324462.52447  -5701437.72145                  23299862.9384
      1383.5014
  22407011.7794   -9441255.39547  -8680886.84446                  22407008.3134
       609.3264
  21144745.0524  -20671681.75348 -16093832.76647                  21144739.4864
      2548.6084
  23481658.5044  -12710739.64847  -9728311.14144                  23481653.7374
      -921.0844
  21443793.2604  -19211749.56648 -14964099.33746                  21443788.4264
      2303.0664
 06  6 27 19 36  0.0000000  0  8G20G28G23G 4G24G17G11G13
  22507160.4134  -16870208.51647 -13131615.12546                  22507155.9114
     -2565.7574
  21457252.0894  -21810128.08648 -16984773.19246                  21457247.2474
     -1364.8294
  21709709.6004  -19020085.44347 -14811798.63446                  21709702.6754
       261.1724
  23291965.0684   -7365984.72846  -5733792.67445                  23291962.1314
      1384.6144
  22403527.5154   -9459565.51947  -8695154.48146                  22403523.8484
       611.4014
  21130223.3814  -20747991.69848 -16153295.07747                  21130218.6924
      2538.7304
  23486922.1864  -12683079.61147  -9706757.91544                  23486917.3834
      -922.8564
  21430681.7424  -19280651.61748 -15017789.27646                  21430677.2064
      2290.4354
 06  6 27 19 36 30.0000000  0  8G20G28G23G 4G24G17G11G13
  22521816.5114  -16793188.88047 -13071599.87446                  22521812.2564
     -2568.6384
  21465080.1964  -21768994.37748 -16952720.97246                  21465074.9944
     -1377.3054
  21708267.2364  -19027663.36347 -14817703.52946                  21708260.6314
       244.0284
  23284058.3594   -7407536.66347  -5766170.78545                  23284054.5954
      1385.5864
  22400031.7064   -9477937.88048  -8709470.64246                  22400027.7094
       613.4034
  21115759.3354  -20824002.63148 -16212524.39547                  21115754.3754
      2528.7214
  23492196.3834  -12655363.78847  -9685161.19744                  23492191.1094
      -924.7664
  21417642.3234  -19349173.50848 -15071182.98546                  21417637.5794
      2277.7934
 06  6 27 19 37  0.0000000  0  8G20G28G23G 4G24G17G11G13
  22536489.9384  -16716079.29647 -13011514.54346                  22536485.9704
     -2571.6214
  21472979.1374  -21727484.01148 -16920375.25746                  21472973.4234
     -1389.7414
  21706924.1244  -19034720.46848 -14823202.59946                  21706917.6284
       226.7774
  23276146.0264   -7449116.29247  -5798570.50945                  23276141.9744
      1386.7144
  22396524.1514   -9496370.02448  -8723833.37346                  22396519.9114
       615.6104
  21101353.0124  -20899708.70948 -16271516.17947                  21101347.7704
      2518.6234
  23497481.7054  -12627588.21847  -9663517.92344                  23497476.4014
      -926.7534
  21404676.6194  -19417309.35248 -15124275.86946                  21404671.4374
      2264.9854
 06  6 27 19 37 30.0000000  0  8G20G28G23G 4G24G17G11G13
  22551179.1534  -16638890.80947 -12951367.72346                  22551174.6064
     -2574.5264
  21480947.8454  -21685608.38348 -16887744.89446                  21480942.6694
     -1402.1974
  21705679.2924  -19041264.12348 -14828301.57046                  21705672.9864
       209.2684
  23268226.6614   -7490733.10347  -5830999.19344                  23268223.2454
      1387.6024
  22393003.2594   -9514870.94648  -8738249.67646                  22392999.5394
       617.6274
  21087003.6804  -20975115.85048 -16330275.00847                  21086998.5304
      2508.2914
  23502777.6154  -12599760.67847  -9641834.17844                  23502772.5634
      -928.8044
  21391783.1274  -19485064.54247 -15177072.14746                  21391778.3104
      2251.8314
 06  6 27 19 38  0.0000000  0  8G20G28G23G 4G24G17G11G13
  22565883.3194  -16561617.68047 -12891154.94346                  22565878.9754
     -2577.0124
  21488987.1234  -21643362.46048 -16854826.00546                  21488982.0184
     -1414.2294
  21704533.5594  -19047285.96147 -14832993.93247                  21704527.0104
       192.1244
  23260301.5614   -7532379.42847  -5863450.89145                  23260297.4934
      1388.8974
  22389470.7094   -9533433.20947  -8752713.79946                  22389467.8514
       619.9124
  21072712.6194  -21050213.25848 -16388792.48147                  21072707.9784
      2498.2424
  23508083.6954  -12571872.04347  -9620102.80544                  23508079.4614
      -930.4984
  21378964.2054  -19552428.53448 -15229563.59346                  21378959.3384
      2239.1114
 06  6 27 19 38 30.0000000  0  8G20G28G23G 4G24G17G11G13
  22580602.3324  -16484268.45247 -12830882.84446                  22580597.8224
     -2579.5804
  21497095.4344  -21600754.69648 -16821625.14546                  21497090.0824
     -1426.2894
  21703485.8384  -19052790.86048 -14837283.47846                  21703478.7154
       174.8584
  23252369.8174   -7574062.33847  -5895931.06545                  23252365.6704
      1390.0054
  22385925.7694   -9552063.05648  -8767230.57546                  22385922.3894
       622.1344
  21058480.4704  -21125004.36048 -16447071.27747                  21058476.0974
      2487.9104
  23513402.2264  -12543927.56447  -9598327.93145                  23513396.9214
      -932.4174
  21366219.1794  -19619404.46348 -15281752.64446                  21366214.6284
      2225.9724
 06  6 27 19 39  0.0000000  0  8G20G28G23G 4G24G17G11G13
  22595336.0184  -16406843.85547 -12770552.04746                  22595332.0234
     -2581.8414
  21505271.5164  -21557786.25648 -16788143.26546                  21505266.5164
     -1438.1154
  21702537.3454  -19057776.38348 -14841168.33146                  21702530.2824
       157.7594
  23244431.0894   -7615780.72947  -5928438.90645                  23244427.2844
      1391.3974
  22382368.3714   -9570759.28148  -8781799.08346                  22382364.6804
       624.4634
  21044307.3464  -21199484.94348 -16505108.11647                  21044302.7944
      2477.6864
  23518731.6554  -12515924.63747  -9576507.55544                  23518726.0994
      -934.2634
  21353549.0114  -19685987.40348 -15333635.47646                  21353544.3484
      2213.0374
 06  6 27 19 39 30.0000000  0  8G20G28G23G 4G24G17G11G13
  22610083.9994  -16329343.09447 -12710161.87846                  22610079.7084
     -2584.7614
  21513516.9474  -21514457.02948 -16754380.24546                  21513511.7434
     -1450.4254
  21701688.1164  -19062239.34648 -14844645.98446                  21701680.8944
       139.9224
  23236486.1494   -7657532.29947  -5960972.61645                  23236481.9284
      1392.0854
  22378798.3354   -9589518.85848  -8796416.95046                  22378794.6854
       626.2554
  21030194.1984  -21273649.02148 -16562898.31847                  21030189.3914
      2466.7044
  23524070.5124  -12487859.11247  -9554638.32744                  23524066.8704
      -936.7724
  21340954.4184  -19752171.58748 -15385207.59546                  21340949.9444
      2199.2634
 06  6 27 19 40  0.0000000  0  8G20G28G23G 4G24G17G11G13
  22624846.6124  -16251763.45347 -12649710.28646                  22624842.2574
     -2587.1004
  21521831.5564  -21470764.83748 -16720334.38746                  21521826.0194
     -1462.2124
  21700939.4514  -19066173.61648 -14847711.66647                  21700932.5254
       122.5104
  23228535.6654   -7699312.59747  -5993528.68245                  23228531.3094
      1393.3894
  22375217.7874   -9608337.39048  -8811080.75346                  22375213.9284
       628.4474
  21016143.1804  -21347488.70448 -16620435.75347                  21016138.5254
      2456.0894
  23529423.9064  -12459725.13347  -9532715.78344                  23529420.5524
      -938.6964
  21328437.4244  -19817949.15748 -15436462.86046                  21328433.1744
      2186.0214
 06  6 27 19 40 30.0000000  0  8G20G28G23G 4G24G17G11G13
  22639623.2664  -16174113.22547 -12589203.65445                  22639619.0604
     -2589.6144
  21530213.1354  -21426718.26448 -16686012.39146                  21530207.6894
     -1474.2244
  21700290.7794  -19069584.48948 -14850369.51646                  21700283.6914
       104.8544
  23220578.5634   -7741128.35747  -6026112.37345                  23220573.7944
      1394.3854
  22371623.3834   -9627221.45848  -8825795.61646                  22371620.1564
       630.4544
  21002152.8944  -21421007.53448 -16677723.16047                  21002148.4614
      2445.1904
  23534791.1214  -12431527.88247  -9510743.95044                  23534786.3334
      -941.0744
  21315997.5004  -19883323.40448 -15487403.85546                  21315992.6374
      2172.3494
 06  6 27 19 41  0.0000000  0  8G20G28G23G 4G24G17G11G13
  22654411.6924  -16096398.76047 -12528646.97545                  22654407.5704
     -2591.6804
  21538661.1644  -21382324.08948 -16651419.53846                  21538655.3684
     -1485.7374
  21699740.4104  -19072475.37448 -14852622.16747                  21699733.4544
        87.5394
  23212613.5214   -7782984.15247  -6058727.26345                  23212609.3644
      1395.7424
  22368016.7684   -9646175.31248  -8840564.87046                  22368013.1064
       632.8614
  20988223.4674  -21494206.76948 -16734761.53447                  20988219.0294
      2434.4874
  23540168.7964  -12403270.05447  -9488724.94445                  23540164.0824
      -943.0034
  21303633.8194  -19948295.02348 -15538031.10246                  21303628.9904
      2158.8234
 06  6 27 19 41 30.0000000  0  8G20G28G23G 4G24G17G11G13
  22669211.9664  -16018623.29447 -12468042.75645                  22669207.2144
     -2593.6724
  21547174.3534  -21337586.26548 -16616558.90146                  21547168.3734
     -1496.9924
  21699289.3054  -19074846.40348 -14854469.74747                  21699282.5874
        70.3424
  23204641.0154   -7824881.68347  -6091374.69544                  23204636.4544
      1397.1974
  22364396.8414   -9665200.30548  -8855389.56346                  22364393.2274
       635.2784
  20974354.9944  -21567084.45548 -16791549.35147                  20974350.5044
      2423.8284
  23545558.0564  -12374951.50847  -9466658.61945                  23545552.4974
      -944.9954
  21291346.7154  -20012862.24448 -15588343.26346                  21291342.3564
      2145.3814
 06  6 27 19 42  0.0000000  0  8G20G28G23G 4G24G17G11G13
  22684024.4754  -15940782.74947 -12407387.81645                  22684019.9874
     -2595.7524
  21555753.4884  -21292501.29248 -16581427.76846                  21555748.2814
     -1508.6624
  21698938.1264  -19076690.84348 -14855906.98847                  21698931.3544
        52.6174
  23196661.4004   -7866815.34347  -6124050.25545                  23196656.5334
      1398.3204
  22360764.0484   -9684290.09448  -8870264.75946                  22360759.9444
       637.3444
  20960550.2794  -21639631.63848 -16848079.62147                  20960545.7504
      2412.6274
  23550959.3164  -12346565.23647  -9444539.50745                  23550954.0544
      -947.4074
  21279138.5434  -20077015.83248 -15638333.09246                  21279134.8064
      2131.4404
 06  6 27 19 42 30.0000000  0  8G20G28G23G 4G24G17G11G13
  22698849.5084  -15862878.38447 -12346683.14245                  22698845.0314
     -2597.8664
  21564398.7084  -21247070.86148 -16546027.43946                  21564393.4104
     -1520.0594
  21698687.8274  -19078006.83248 -14856932.44746                  21698680.8394
        35.0444
  23188674.0924   -7908784.77947  -6156753.69145                  23188670.1914
      1399.5804
  22357119.0484   -9703443.71148  -8885189.68146                  22357115.1764
       639.4874
  20946808.1864  -21711844.29848 -16904349.23947                  20946804.1804
      2401.5094
  23556374.3644  -12318109.02047  -9422365.91244                  23556369.3694
      -949.7224
  21267010.0614  -20140752.03548 -15687997.70046                  21267006.0174
      2117.5194
 06  6 27 19 43  0.0000000  0  8G20G28G23G 4G24G17G11G13
  22713684.7094  -15784919.02247 -12285935.63645                  22713679.5314
     -2599.7754
  21573107.8904  -21201304.53248 -16510365.38346                  21573102.6074
     -1531.4064
  21698536.5994  -19078800.51048 -14857550.92246                  21698529.9464
        17.4074
  23180680.0844   -7950797.10947  -6189490.59345                  23180675.3914
      1400.7814
  22353460.8604   -9722668.46048  -8900170.02346                  22353457.1354
       641.7384
  20933129.3444  -21783726.85848 -16960361.63547                  20933125.4754
      2390.2644
  23561801.9314  -12289588.93247  -9400142.57044                  23561796.6504
      -952.0464
  21254960.5334  -20204074.77348 -15737340.11147                  21254956.6184
      2103.5554
 06  6 27 19 43 30.0000000  0  8G20G28G23G 4G24G17G11G13
  22728531.3794  -15706900.76247 -12225142.19945                  22728526.4844
     -2601.3484
  21581881.4574  -21155199.02848 -16474439.03846                  21581876.4604
     -1542.3144
  21698486.5594  -19079065.19048 -14857757.18946                  21698479.6654
          .1664
  23172677.8844   -7992847.02347  -6222256.75245                  23172673.8834
      1402.4664
  22349790.1084   -9741958.27548  -8915201.06546                  22349786.7114
       644.2974
  20919515.4214  -21855270.41148 -17016109.86047                  20919511.3984
      2379.2634
  23567240.8484  -12260997.66347  -9377863.71744                  23567237.9174
      -953.9364
  21242990.9014  -20266974.74148 -15786353.08646                  21242986.9304
      2089.7904
 06  6 27 19 44  0.0000000  0  8G20G28G23G 4G24G17G11G13
  22743387.8174  -15628828.38647 -12164306.64445                  22743382.7304
     -2603.1694
  21590718.6654  -21108759.66847 -16438252.56246                  21590713.5864
     -1553.3984
  21698536.0884  -19078802.87748 -14857552.81546                  21698529.4964
       -17.4514
  23164668.8224   -8034937.48347  -6255054.50945                  23164664.3094
      1403.9264
  22346106.5414   -9761315.95248  -8930285.00546                  22346103.2004
       646.4364
  20905965.5334  -21926474.71348 -17071593.74947                  20905961.5984
      2367.9354
  23572695.5664  -12232336.53246  -9355530.44444                  23572691.9304
      -956.4364
  21231101.8854  -20329452.20348 -15835036.87146                  21231097.8944
      2075.6254
 06  6 27 19 44 30.0000000  0  8G20G28G23G 4G24G17G11G13
  22758253.4514  -15550708.74747 -12103434.24545                  22758249.1124
     -2604.8734
  21599618.2754  -21061993.81247 -16401811.64646                  21599612.2394
     -1564.4194
  21698685.4164  -19078017.52748 -14856940.88546                  21698678.8954
       -34.9954
  23156650.2524   -8077073.31847  -6287887.63445                  23156646.2834
      1405.2344
  22342408.9964   -9780746.28948  -8945425.55946                  22342405.1024
       648.7994
  20892480.3544  -21997341.32248 -17126814.50547                  20892476.5424
      2356.4504
  23578162.6174  -12203608.96946  -9333145.44244                  23578158.7844
      -958.8284
  21219293.0704  -20391508.03148 -15883392.07146                  21219288.9164
      2061.3724
 06  6 27 19 45  0.0000000  0  8G20G28G23G 4G24G17G11G13
  22773129.1324  -15472536.72447 -12042521.01945                  22773125.4424
     -2606.3824
  21608579.9444  -21014896.86947 -16365112.74446                  21608574.6704
     -1575.2154
  21698935.7404  -19076701.43148 -14855915.37346                  21698929.2964
       -52.5204
  23148625.2034   -8119248.32147  -6320751.28445                  23148620.8284
      1406.7284
  22338699.1524   -9800242.48648  -8960617.42746                  22338695.5404
       651.1334
  20879061.0114  -22067860.38748 -17181764.42847                  20879056.8744
      2345.0004
  23583643.7494  -12174806.79947  -9310702.21044                  23583639.2904
      -961.1474
  21207566.3064  -20453132.84048 -15931411.43146                  21207562.3054
      2047.1734
 06  6 27 19 45 30.0000000  0  8G20G28G23G 4G24G17G11G13
  22788013.8404  -15394315.81847 -11981569.70745                  22788009.4854
     -2608.1354
  21617604.7524  -20967473.01648 -16328159.10546                  21617599.3334
     -1586.1624
  21699287.2824  -19074855.47948 -14854477.00347                  21699281.0914
       -70.3324
  23140591.4204   -8161464.25247  -6353646.77845                  23140587.2904
      1407.9394
  22334976.3764   -9819805.63148  -8975861.47346                  22334972.8624
       653.2374
  20865708.0574  -22138030.61948 -17236442.53547                  20865703.8214
      2333.2574
  23589138.9344  -12145930.49047  -9288201.27944                  23589134.3734
      -963.7844
  21195921.5124  -20514325.05548 -15979093.69946                  21195917.5554
      2032.5594
 06  6 27 19 46  0.0000000  0  8G20G28G23G 4G24G17G11G13
  22802907.5564  -15316051.45147 -11920584.53345                  22802902.9474
     -2609.3414
  21626690.0964  -20919728.81847 -16290955.85646                  21626684.6104
     -1596.6804
  21699738.9844  -19072482.41148 -14852627.88246                  21699732.7124
       -87.7784
  23132549.6664   -8203724.76747  -6386577.06445                  23132544.6004
      1409.5754
  22331240.6074   -9839439.11648  -8991160.31446                  22331236.8354
       655.6794
  20852421.4934  -22207852.41548 -17290849.15147                  20852417.3964
      2321.6164
  23594647.7894  -12116982.32547  -9265644.34545                  23594643.5284
      -966.0504
  21184359.7244  -20575084.88548 -16026439.05046                  21184355.3494
      2018.1404
 06  6 27 19 46 30.0000000  0  8G20G28G23G 4G24G17G11G13
  22817809.2084  -15237740.21447 -11859562.84245                  22817804.8554
     -2611.2064
  21635836.9544  -20871661.40948 -16253500.75446                  21635832.0784
     -1607.7394
  21700292.1274  -19069575.95548 -14850363.13847                  21700285.6364
      -105.8154
  23124499.9374   -8246024.87047  -6419538.18445                  23124495.6414
      1410.5964
  22327491.9874   -9859137.62348  -9006509.82646                  22327488.2484
       657.6614
  20839202.8464  -22277317.68148 -17344977.92747                  20839198.4974
      2309.4734
  23600170.8494  -12087955.45447  -9243026.07944                  23600167.0134
      -969.0234
  21172880.9154  -20635404.25148 -16073441.17546                  21172876.6784
      2003.2134
 06  6 27 19 47  0.0000000  0  8G20G28G23G 4G24G17G11G13
  22832719.0054  -15159389.62347 -11798510.44245                  22832714.9164
     -2612.3004
  21645043.7054  -20823278.75848 -16215799.99946                  21645039.0464
     -1617.8954
  21700946.0984  -19066141.50448 -14847686.95847                  21700939.2984
      -123.1644
  23116441.8094   -8288370.65447  -6452534.88745                  23116437.6304
      1412.3634
  22323730.0614   -9878906.75248  -9021914.36346                  22323726.7464
       660.2254
  20826051.2804  -22346429.11848 -17398831.01347                  20826046.6734
      2297.8424
  23605709.3084  -12058854.45747  -9220350.01144                  23605704.5344
      -971.2454
  21161486.1274  -20695285.68048 -16120102.03646                  21161481.0394
      1988.7794
 06  6 27 19 47 30.0000000  0  8G20G28G23G 4G24G17G11G13
  22847636.0544  -15081000.03247 -11737427.70445                  22847631.6184
     -2613.9014
  21654310.3444  -20774582.28848 -16177854.71846                  21654305.5514
     -1628.8484
  21701700.6414  -19062176.72748 -14844597.54647                  21701693.9804
      -141.4314
  23108375.3134   -8330760.82447  -6485566.18745                  23108370.8434
      1413.3354
  22319955.2344   -9898745.15248  -9037372.89246                  22319951.1594
       661.9824
  20812968.0824  -22415182.31348 -17452404.94447                  20812963.6334
      2285.3814
  23611261.1874  -12029676.62847  -9197614.11444                  23611256.8754
      -974.2684
  21150174.9624  -20754724.83148 -16166418.27646                  21150170.1764
      1973.4624
 06  6 27 19 48  0.0000000  0  8G20G28G23G 4G24G17G11G13
  22862561.6754  -15002567.91747 -11676311.84645                  22862557.0554
     -2614.8884
  21663637.3804  -20725568.89948 -16139662.47646                  21663632.3974
     -1638.8384
  21702556.9744  -19057675.56948 -14841090.15947                  21702550.2404
      -158.7704
  23100301.1214   -8373190.00147  -6518627.90845                  23100297.0004
      1415.2294
  22316167.6624   -9918646.93048  -9052880.80446                  22316163.9964
       664.6834
  20799954.3214  -22483568.57148 -17505692.94847                  20799949.9634
      2273.6774
  23616830.3694  -12000414.77147  -9174812.75845                  23616825.8064
      -976.6704
  21138949.8614  -20813713.07048 -16212383.15646                  21138944.0594
      1958.9654
 06  6 27 19 48 30.0000000  0  8G20G28G23G 4G24G17G11G13
  22877492.6814  -14924106.02447 -11615172.77845                  22877487.9784
     -2615.6064
  21673022.3984  -20676252.31048 -16101233.99046                  21673017.0364
     -1648.7554
  21703513.5254  -19052648.27048 -14837172.80647                  21703506.6904
      -176.1914
  23092217.2554   -8415669.35747  -6551728.72945                  23092213.7284
      1417.0314
  22312366.6164   -9938622.69848  -9068446.36846                  22312362.4464
       667.3444
  20787009.3664  -22551596.07848 -17558701.42747                  20787004.7514
      2261.7824
  23622412.1664  -11971079.09047  -9151953.84244                  23622407.5314
      -978.8964
  21127809.8074  -20872258.31148 -16258002.84446                  21127803.7634
      1944.2534
 06  6 27 19 49  0.0000000  0  8G20G28G23G 4G24G17G11G13
  22892428.0984  -14845616.94747 -11554012.52645                  22892423.9304
     -2616.7634
  21682463.7414  -20626636.10747 -16062572.02446                  21682458.8124
     -1658.8184
  21704569.8814  -19047094.97548 -14832845.57947                  21704563.0274
      -193.8724
  23084123.7404   -8458199.99347  -6584869.49345                  23084120.0594
      1418.5214
  22308550.8484   -9958673.40648  -9084070.34146                  22308547.2174
       669.5754
  20774132.8464  -22619262.30748 -17611428.38447                  20774128.2674
      2249.4824
  23628008.4384  -11941668.70247  -9129036.71744                  23628004.9514
      -981.6704
  21116753.5734  -20930358.79148 -16303275.96646                  21116748.3174
      1929.2584
 06  6 27 19 49 30.0000000  0  8G20G28G23G 4G24G17G11G13
  22907370.5064  -14767097.14047 -11492828.32845                  22907365.9224
     -2617.7884
  21691963.2364  -20576716.99347 -16023674.03546                  21691958.1584
     -1669.0334
  21705727.5204  -19041009.73548 -14828103.86346                  21705721.5564
      -211.7434
  23076021.3034   -8500776.67047  -6618046.13644                  23076017.6554
      1419.9274
  22304722.4664   -9978793.07448  -9099748.02446                  22304718.2694
       671.8264
  20761326.6894  -22686559.08848 -17663867.45347                  20761322.0964
      2237.0224
  23633621.5814  -11912177.01147  -9106056.23244                  23633616.8184
      -984.4634
  21105783.1264  -20988005.56748 -16348195.53746                  21105779.4534
      1913.9604
 06  6 27 19 50  0.0000000  0  8G20G28G23G 4G24G17G11G13
  22922317.9454  -14688547.53647 -11431620.90645                  22922313.4734
     -2619.0384
  21701519.4864  -20526496.87148 -15984541.50246                  21701514.5484
     -1679.2044
  21706987.3204  -19034391.16948 -14822946.58146                  21706981.3904
      -229.8004
  23067911.0414   -8543398.38747  -6651257.88945                  23067907.2864
      1421.1964
  22300880.9354   -9998980.88048  -9115478.80746                  22300877.2894
       673.8674
  20748591.8644  -22753482.62248 -17716015.69347                  20748587.1074
      2224.3554
  23639248.7914  -11882601.94347  -9083010.79244                  23639244.9834
      -987.4324
  21094900.6884  -21045194.84548 -16392758.63446                  21094896.5384
      1898.3984
 06  6 27 19 50 30.0000000  0  8G20G28G23G 4G24G17G11G13
  22937269.9614  -14609973.95147 -11370394.81345                  22937265.2874
     -2619.5614
  21711132.3174  -20475982.83147 -15945179.94046                  21711127.2414
     -1688.7064
  21708348.2534  -19027243.11448 -14817376.69346                  21708341.3884
      -247.1534
  23059790.7624   -8586070.02347  -6684508.54945                  23059787.4884
      1423.1644
  22297025.3374  -10019240.64448  -9131265.66046                  22297021.6074
       676.4404
  20735927.3354  -22820034.32848 -17767874.18047                  20735922.3864
      2212.1004
  23644891.6484  -11852946.20847  -9059902.49244                  23644888.3524
      -989.9804
  21084104.6674  -21101928.09348 -16436966.37646                  21084100.7434
      1883.4184
 06  6 27 19 51  0.0000000  0  8G20G28G23G 4G24G17G11G13
  22952226.0644  -14531377.83847 -11309151.13445                  22952222.1594
     -2620.1814
  21720800.2714  -20425176.58548 -15905590.66046                  21720795.1174
     -1698.3064
  21709809.9014  -19019564.26348 -14811393.19247                  21709802.4914
      -264.7364
  23051661.0774   -8628791.01647  -6717797.66744                  23051657.7614
      1424.8634
  22293156.4714  -10039571.93947  -9147108.23746                  22293153.3924
       678.9114
  20723334.5564  -22886210.53248 -17819440.06847                  20723330.0844
      2199.5854
  23650551.0904  -11823208.31347  -9036730.15244                  23650546.8854
      -992.6034
  21073395.8984  -21158202.04848 -16480816.22347                  21073391.8764
      1868.1354
 06  6 27 19 51 30.0000000  0  8G20G28G23G 4G24G17G11G13
  22967185.0064  -14452765.86847 -11247895.11445                  22967181.8634
     -2620.7864
  21730521.8914  -20374086.35048 -15865780.10546                  21730516.6184
     -1707.7684
  21711371.0824  -19011359.31248 -14804999.72447                  21711363.9754
      -282.4074
  23043521.6064   -8671566.64547  -6751129.31644                  23043517.3454
      1426.6704
  22289272.8804  -10059979.25748  -9163010.05746                  22289269.7344
       681.3924
  20710812.2704  -22952013.50948 -17870715.13547                  20710807.9614
      2187.0614
  23656224.7644  -11793392.05347  -9013496.75744                  23656220.9944
      -995.2834
  21062774.5724  -21214019.07448 -16524310.02647                  21062769.8864
      1852.7834
 06  6 27 19 52  0.0000000  0  8G20G28G23G 4G24G17G11G13
  22982149.5364  -14374133.68647 -11186623.35945                  22982145.0574
     -2621.7094
  21740299.7104  -20322708.26148 -15825745.24546                  21740294.2244
     -1717.7054
  21713032.3054  -19002621.57448 -14798191.12446                  21713026.8884
      -300.4744
  23035372.3094   -8714390.87147  -6784498.87845                  23035368.8304
      1427.9004
  22285376.0184  -10080456.21048  -9178966.15046                  22285373.1994
       683.3944
  20698363.3484  -23017434.13548 -17921692.27347                  20698358.8004
      2173.9314
  23661915.3704  -11763489.52647  -8990196.15044                  23661911.8704
      -998.5404
  21052241.6004  -21269369.50048 -16567440.24446                  21052237.0784
      1836.8804
 06  6 27 19 52 30.0000000  0  8G20G28G23G 4G24G17G11G13
  22997116.1904  -14295477.71447 -11125333.04045                  22997111.9004
     -2622.2024
  21750131.4644  -20271039.47448 -15785483.88346                  21750126.0614
     -1727.0854
  21714798.7624  -18993345.24348 -14790962.86447                  21714792.2714
      -318.1404
  23027215.1764   -8757258.25447  -6817902.06044                  23027211.3224
      1429.6784
  22281467.6304  -10100996.83048  -9194971.83146                  22281464.4924
       685.7574
  20685988.7754  -23082463.98948 -17972364.90747                  20685983.9934
      2161.1964
  23667622.9244  -11733494.11047  -8966823.16744                  23667619.4484
     -1001.4064
  21041799.1594  -21324245.11348 -16610200.48546                  21041794.1304
      1821.3094
 06  6 27 19 53  0.0000000  0  8G20G28G23G 4G24G17G11G13
  23012087.3054  -14216808.32747 -11064032.28345                  23012083.0764
     -2622.8764
  21760017.1124  -20219091.35847 -15745004.86046                  21760011.8434
     -1736.6064
  21716664.9304  -18983538.50348 -14783321.26047                  21716658.2884
      -336.1134
  23019048.6234   -8800177.61447  -6851345.73145                  23019043.6934
      1431.1914
  22277545.3664  -10121609.91647  -9211034.01646                  22277541.4924
       687.9204
  20673686.9374  -23147108.71348 -18022737.44547                  20673682.7224
      2147.9984
  23673347.3984  -11703413.23047  -8943383.57644                  23673343.4494
     -1004.5214
  21031445.7634  -21378651.94748 -16652595.44147                  21031440.8624
      1805.4254
 06  6 27 19 53 30.0000000  0  8G20G28G23G 4G24G17G11G13
  23027060.2314  -14138123.43747 -11002719.44745                  23027056.7294
     -2622.8664
  21769955.7984  -20166862.98247 -15704307.44446                  21769950.9034
     -1745.3964
  21718631.9894  -18973197.26248 -14775263.17446                  21718625.9284
      -353.4814
  23010871.5634   -8843145.57547  -6884827.26745                  23010867.7124
      1433.2374
  22273609.3434  -10142291.50448  -9227149.55346                  22273606.2494
       690.7474
  20661460.1024  -23211361.73048 -18072804.75047                  20661455.4444
      2135.3964
  23679088.7714  -11673241.67447  -8919873.35244                  23679085.3884
     -1007.0614
  21021183.1244  -21432583.35048 -16694619.91946                  21021178.6134
      1789.8934
 06  6 27 19 54  0.0000000  0  8G20G28G23G 4G24G17G11G13
  23042034.1944  -14059435.59947 -10941404.31145                  23042030.4234
     -2622.9494
  21779945.2824  -20114368.00447 -15663402.30346                  21779940.4644
     -1754.2774
  21720700.8844  -18962332.05748 -14766796.80146                  21720693.7454
      -370.8644
  23002684.4194   -8886172.94447  -6918355.11245                  23002680.1474
      1435.2204
  22269658.5644  -10163051.94748  -9243326.54746                  22269655.7354
       693.3154
  20649305.9914  -23275231.17648 -18122573.15947                  20649301.6944
      2122.5594
  23684845.8724  -11642989.39347  -8896300.16244                  23684842.4934
     -1009.7514
  21011009.0084  -21486047.41048 -16736280.23846                  21011004.8764
      1774.3314
 06  6 27 19 54 30.0000000  0  8G20G28G23G 4G24G17G11G13
  23057009.2624  -13980741.79547 -10880084.55245                  23057005.3044
     -2623.4864
  21789985.9274  -20061604.17048 -15622287.66246                  21789980.4954
     -1763.4184
  21722868.4754  -18950937.94148 -14757918.29247                  21722861.8954
      -388.8534
  22994486.2704   -8929255.08147  -6951925.62845                  22994481.0844
      1436.7684
  22265694.6224  -10183886.29248  -9259561.12546                  22265691.0354
       695.4984
  20637226.8644  -23338709.36548 -18172036.71647                  20637222.0104
      2109.1754
  23690619.1634  -11612650.33047  -8872659.41644                  23690615.9384
     -1012.9204
  21000926.1124  -21539036.49648 -16777570.46147                  21000921.6964
      1758.1934
 06  6 27 19 55  0.0000000  0  8G20G28G23G 4G24G17G11G13
  23071985.4484  -13902041.22647 -10818759.50245                  23071981.3754
     -2623.5404
  21800077.7004  -20008571.36948 -15580963.41246                  21800072.6854
     -1772.2904
  21725137.8804  -18939011.61348 -14748625.07647                  21725132.0704
      -406.4944
  22986276.8694   -8972389.44247  -6985536.84745                  22986273.9614
      1438.6824
  22261716.1774  -10204791.30447  -9275850.77346                  22261713.1134
       697.9744
  20625223.1294  -23401790.66148 -18221190.99747                  20625218.0904
      2096.0114
  23696409.7274  -11582220.26647  -8848947.74444                  23696406.3734
     -1015.8844
  20990933.7824  -21591545.19548 -16818486.34647                  20990929.2754
      1742.2124
 06  6 27 19 55 30.0000000  0  8G20G28G23G 4G24G17G11G13
  23086962.9594  -13823335.19147 -10757430.20745                  23086959.1764
     -2623.9114
  21810220.3254  -19955271.66348 -15539431.19346                  21810215.2924
     -1781.3384
  21727508.8074  -18926552.63348 -14738916.80147                  21727502.6224
      -424.4144
  22978060.1444   -9015575.60547  -7019188.41945                  22978055.9844
      1440.2204
  22257724.8934  -10225766.51448  -9292195.12246                  22257721.8224
       700.1614
  20613295.2444  -23464471.66648 -18270033.35047                  20613290.8444
      2082.5104
  23702218.8314  -11551697.56847  -8825163.89344                  23702215.2524
     -1019.1804
  20981033.7634  -21643570.42048 -16859025.49047                  20981029.2244
      1725.8544
 06  6 27 19 56  0.0000000  0  8G20G28G23G 4G24G17G11G13
  23101940.0764  -13744628.24247 -10696100.19945                  23101936.5854
     -2623.6044
  21820412.8404  -19901711.29448 -15497695.86646                  21820407.3974
     -1789.7464
  21729980.2964  -18913563.70948 -14728795.58946                  21729974.3734
      -441.7924
  22969831.7074   -9058816.88647  -7052882.94045                  22969826.7394
      1442.2174
  22253719.5814  -10246814.80248  -9308596.41146                  22253715.7624
       702.8564
  20601443.0654  -23526752.84748 -18318564.16547                  20601438.4684
      2069.3954
  23708044.5534  -11521084.11747  -8801309.33144                  23708039.8844
     -1022.0264
  20971225.2904  -21695112.60848 -16899188.26546                  20971220.9144
      1709.9614
 06  6 27 19 56 30.0000000  0  8G20G28G23G 4G24G17G11G13
  23116917.7384  -13665920.48747 -10634769.51945                  23116913.9214
     -2623.4864
  21830654.4324  -19847891.09648 -15455758.06646                  21830649.2694
     -1798.1254
  21732553.3544  -18900042.99248 -14718259.98946                  21732547.2514
      -459.3854
  22961592.6594   -9102111.42647  -7086618.96345                  22961588.4044
      1444.1704
  22249700.7064  -10267933.76747  -9325052.77246                  22249697.2084
       705.2644
  20589668.6054  -23588629.64848 -18366779.86947                  20589664.0354
      2055.9234
  23713887.1424  -11490376.94047  -8777381.67544                  23713884.4004
     -1025.0594
  20961510.0824  -21746167.27448 -16938971.13247                  20961505.6274
      1693.7844
 06  6 27 19 57  0.0000000  0  8G20G28G23G 4G24G17G11G13
  23131896.0354  -13587210.71547 -10573437.32845                  23131891.7404
     -2623.7504
  21840945.5514  -19793811.03448 -15413617.78846                  21840941.2224
     -1807.0074
  21735228.1164  -18885987.79248 -14707307.91946                  21735221.5464
      -477.4414
  22953344.0304   -9145457.19347  -7120394.90645                  22953339.7624
      1445.6794
  22245669.2954  -10289120.39248  -9341561.86346                  22245665.6554
       707.3054
  20577971.5794  -23650096.47048 -18414676.11047                  20577967.3224
      2042.0214
  23719749.6004  -11459572.17747  -8753378.02544                  23719745.8384
     -1028.5944
  20951888.4994  -21796728.97548 -16978369.88646                  20951884.3364
      1677.1484
 06  6 27 19 57 30.0000000  0  8G20G28G23G 4G24G17G11G13
  23146872.8074  -13508506.10547 -10512109.12145                  23146869.0674
     -2623.4964
  21851284.5964  -19739479.14448 -15371281.27946                  21851279.8244
     -1815.2204
  21738003.9604  -18871403.10348 -14695943.25746                  21737997.3564
      -495.0104
  22945084.8314   -9188859.08847  -7154214.59045                  22945080.8964
      1447.6124
  22241624.1084  -10310379.75648  -9358127.61346                  22241620.1104
       709.7514
  20566352.8824  -23711155.98448 -18462254.97447                  20566348.2724
      2028.4474
  23725629.1464  -11428673.79247  -8729301.43544                  23725625.4244
     -1031.6804
  20942360.2434  -21846800.42648 -17017386.61847                  20942356.2324
      1660.8064
 06  6 27 19 58  0.0000000  0  8G20G28G23G 4G24G17G11G13
  23161849.3844  -13429804.55447 -10450783.31544                  23161844.9724
     -2623.3064
  21861671.7694  -19684894.61648 -15328747.91546                  21861666.0474
     -1823.6334
  21740880.1804  -18856285.01448 -14684162.95046                  21740874.1354
      -512.8274
  22936815.9954   -9232313.63347  -7188075.28045                  22936811.9894
      1449.3994
  22237565.0364  -10331707.91048  -9374746.98946                  22237561.7194
       712.0904
  20554812.4304  -23771801.59448 -18509511.31847                  20554807.3324
      2014.6194
  23731527.5284  -11397676.72047  -8705147.89044                  23731523.8484
     -1034.8444
  20932926.4134  -21896375.42348 -17056016.49947                  20932922.4904
      1644.2684
 06  6 27 19 58 30.0000000  0  8G20G28G23G 4G24G17G11G13
  23176823.7904  -13351111.02347 -10389463.73344                  23176820.4394
     -2622.6514
  21872106.0934  -19630063.28348 -15286022.21146                  21872100.8954
     -1831.5094
  21743858.1574  -18840636.55648 -14671969.37746                  21743852.2994
      -530.2054
  22928536.2374   -9275824.04347  -7221979.51645                  22928531.5944
      1451.5724
  22233492.7214  -10353107.34648  -9391421.90646                  22233489.2814
       714.8054
  20543350.4804  -23832033.66548 -18556445.40647                  20543345.6814
      2001.1184
  23737445.0854  -11366582.88547  -8680919.00044                  23737441.1764
     -1037.7984
  20923587.1574  -21945454.38948 -17094259.87947                  20923582.8114
      1627.9694
 06  6 27 19 59  0.0000000  0  8G20G28G23G 4G24G17G11G13
  23191795.7464  -13272435.89547 -10328158.52244                  23191791.7304
     -2622.4804
  21882584.4954  -19574996.50748 -15243113.07646                  21882580.0134
     -1839.6924
  21746935.0424  -18824466.61748 -14659369.45346                  21746929.1954
      -548.0764
  22920244.1994   -9319399.24247  -7255934.25245                  22920239.6974
      1453.2624
  22229405.8514  -10374586.76148  -9408159.14046                  22229402.0884
       716.9974
  20531966.0714  -23891858.34748 -18603062.05847                  20531961.6104
      1987.0614
  23743378.9604  -11335400.22647  -8656620.86544                  23743374.5974
     -1041.1914
  20914340.6434  -21994043.77048 -17132121.75347                  20914336.0664
      1611.1384
